Observation data for Tahoka on 02/15/2017      Previous  Date  Next       Current Mesonet Observations  Soil Data  Daily Summary Page  Observations in Plain Language
KTAS 150600Z 33010KT 02/M01 A3017 RMK A01 T00191008  RH  083%=      5-min Rain = 0
KTAS 150601Z 33010KT 02/M01 A3017 RMK A01 T00191008  RH  083%=      5-min Rain = 0
KTAS 150602Z 33010KT 02/M01 A3017 RMK A01 T00191008  RH  083%=      5-min Rain = 0
KTAS 150603Z 33011KT 02/M01 A3017 RMK A01 T00191008  RH  083%=      5-min Rain = 0
KTAS 150604Z 33010KT 02/M01 A3017 RMK A01 T00191007  RH  083%=      5-min Rain = 0
KTAS 150605Z 33010KT 02/M01 A3017 RMK A01 T00191008  RH  082%=      5-min Rain = 0
KTAS 150606Z 33010KT 02/M01 A3017 RMK A01 T00181008  RH  082%=      5-min Rain = 0
KTAS 150607Z 33010KT 02/M01 A3017 RMK A01 T00181008  RH  083%=      5-min Rain = 0
KTAS 150608Z 33009KT 02/M01 A3017 RMK A01 T00181008  RH  083%=      5-min Rain = 0
KTAS 150609Z 33010KT 02/M01 A3017 RMK A01 T00171009  RH  083%=      5-min Rain = 0
KTAS 150610Z 33010KT 02/M01 A3017 RMK A01 T00181009  RH  083%=      5-min Rain = 0
KTAS 150611Z 33010KT 02/M01 A3017 RMK A01 T00181009  RH  083%=      5-min Rain = 0
KTAS 150612Z 33010KT 02/M01 A3017 RMK A01 T00181009  RH  083%=      5-min Rain = 0
KTAS 150613Z 33010KT 02/M01 A3017 RMK A01 T00171010  RH  083%=      5-min Rain = 0
KTAS 150614Z 33010KT 02/M01 A3017 RMK A01 T00171009  RH  083%=      5-min Rain = 0
KTAS 150615Z 33010KT 02/M01 A3017 RMK A01 T00171009  RH  083%=      5-min Rain = 0
KTAS 150616Z 33010KT 02/M01 A3017 RMK A01 T00171010  RH  083%=      5-min Rain = 0
KTAS 150617Z 33009KT 02/M01 A3017 RMK A01 T00161010  RH  083%=      5-min Rain = 0
KTAS 150618Z 33010KT 02/M01 A3017 RMK A01 T00161010  RH  083%=      5-min Rain = 0
KTAS 150619Z 33010KT 02/M01 A3017 RMK A01 T00161010  RH  083%=      5-min Rain = 0
KTAS 150620Z 33010KT 02/M01 A3017 RMK A01 T00161010  RH  083%=      5-min Rain = 0
KTAS 150621Z 33011KT 02/M01 A3017 RMK A01 T00161010  RH  083%=      5-min Rain = 0
KTAS 150622Z 34010KT 02/M01 A3017 RMK A01 T00161010  RH  083%=      5-min Rain = 0
KTAS 150623Z 33011KT 02/M01 A3017 RMK A01 T00161011  RH  083%=      5-min Rain = 0
KTAS 150624Z 33010KT 02/M01 A3017 RMK A01 T00161011  RH  082%=      5-min Rain = 0
KTAS 150625Z 33010KT 02/M01 A3017 RMK A01 T00161011  RH  082%=      5-min Rain = 0
KTAS 150626Z 34009KT 02/M01 A3018 RMK A01 T00161011  RH  082%=      5-min Rain = 0
KTAS 150627Z 34010KT 02/M01 A3018 RMK A01 T00161012  RH  082%=      5-min Rain = 0
KTAS 150628Z 33010KT 02/M01 A3018 RMK A01 T00171011  RH  082%=      5-min Rain = 0
KTAS 150629Z 33010KT 02/M01 A3018 RMK A01 T00171012  RH  081%=      5-min Rain = 0
KTAS 150630Z 33010KT 02/M01 A3018 RMK A01 T00171012  RH  081%=      5-min Rain = 0
KTAS 150631Z 33009KT 02/M01 A3018 RMK A01 T00171013  RH  081%=      5-min Rain = 0
KTAS 150632Z 33009KT 02/M01 A3018 RMK A01 T00171013  RH  081%=      5-min Rain = 0
KTAS 150633Z 33009KT 02/M01 A3018 RMK A01 T00171014  RH  080%=      5-min Rain = 0
KTAS 150634Z 33010KT 02/M01 A3018 RMK A01 T00171014  RH  080%=      5-min Rain = 0
KTAS 150635Z 33010KT 02/M01 A3018 RMK A01 T00171014  RH  080%=      5-min Rain = 0
KTAS 150636Z 33011KT 02/M01 A3018 RMK A01 T00171014  RH  080%=      5-min Rain = 0
KTAS 150637Z 33011KT 02/M02 A3018 RMK A01 T00171015  RH  080%=      5-min Rain = 0
KTAS 150638Z 33011KT 02/M02 A3018 RMK A01 T00171015  RH  080%=      5-min Rain = 0
KTAS 150639Z 33012KT 02/M01 A3018 RMK A01 T00171014  RH  079%=      5-min Rain = 0
KTAS 150640Z 33010KT 02/M01 A3018 RMK A01 T00181014  RH  079%=      5-min Rain = 0
KTAS 150641Z 33011KT 02/M02 A3018 RMK A01 T00181015  RH  079%=      5-min Rain = 0
KTAS 150642Z 33010KT 02/M02 A3018 RMK A01 T00181015  RH  079%=      5-min Rain = 0
KTAS 150643Z 33011KT 02/M02 A3018 RMK A01 T00181015  RH  079%=      5-min Rain = 0
KTAS 150644Z 33011KT 02/M02 A3018 RMK A01 T00181015  RH  079%=      5-min Rain = 0
KTAS 150645Z 33011KT 02/M02 A3018 RMK A01 T00171016  RH  079%=      5-min Rain = 0
KTAS 150646Z 33011KT 02/M02 A3018 RMK A01 T00171015  RH  079%=      5-min Rain = 0
KTAS 150647Z 33011KT 02/M02 A3018 RMK A01 T00171016  RH  079%=      5-min Rain = 0
KTAS 150648Z 33011KT 02/M02 A3018 RMK A01 T00171016  RH  079%=      5-min Rain = 0
KTAS 150649Z 33011KT 02/M02 A3018 RMK A01 T00171015  RH  079%=      5-min Rain = 0
KTAS 150650Z 33011KT 02/M02 A3018 RMK A01 T00171016  RH  079%=      5-min Rain = 0
KTAS 150651Z 33011KT 02/M02 A3018 RMK A01 T00171016  RH  079%=      5-min Rain = 0
KTAS 150652Z 33010KT 02/M02 A3018 RMK A01 T00171016  RH  079%=      5-min Rain = 0
KTAS 150653Z 33011KT 02/M02 A3018 RMK A01 T00171016  RH  079%=      5-min Rain = 0
KTAS 150654Z 33011KT 02/M02 A3018 RMK A01 T00171016  RH  079%=      5-min Rain = 0
KTAS 150655Z 33010KT 02/M02 A3018 RMK A01 T00161016  RH  079%=      5-min Rain = 0
KTAS 150656Z 33010KT 02/M02 A3018 RMK A01 T00161017  RH  079%=      5-min Rain = 0
KTAS 150657Z 33010KT 02/M02 A3018 RMK A01 T00151016  RH  079%=      5-min Rain = 0
KTAS 150658Z 33010KT 02/M02 A3018 RMK A01 T00151016  RH  080%=      5-min Rain = 0
KTAS 150659Z 33010KT 02/M02 A3018 RMK A01 T00161016  RH  080%=      5-min Rain = 0
KTAS 150700Z 33011KT 02/M02 A3018 RMK A01 T00151016  RH  079%=      5-min Rain = 0
KTAS 150701Z 33010KT 02/M02 A3018 RMK A01 T00151016  RH  079%=      5-min Rain = 0
KTAS 150702Z 33010KT 02/M02 A3018 RMK A01 T00161016  RH  079%=      5-min Rain = 0
KTAS 150703Z 33010KT 02/M02 A3018 RMK A01 T00161016  RH  079%=      5-min Rain = 0
KTAS 150704Z 33010KT 02/M02 A3018 RMK A01 T00151017  RH  079%=      5-min Rain = 0
KTAS 150705Z 33009KT 02/M02 A3018 RMK A01 T00151017  RH  079%=      5-min Rain = 0
KTAS 150706Z 33009KT 02/M02 A3018 RMK A01 T00151017  RH  079%=      5-min Rain = 0
KTAS 150707Z 33010KT 01/M02 A3018 RMK A01 T00141017  RH  079%=      5-min Rain = 0
KTAS 150708Z 33010KT 01/M02 A3018 RMK A01 T00141017  RH  080%=      5-min Rain = 0
KTAS 150709Z 33010KT 01/M02 A3018 RMK A01 T00141017  RH  080%=      5-min Rain = 0
KTAS 150710Z 33009KT 01/M02 A3018 RMK A01 T00141017  RH  080%=      5-min Rain = 0
KTAS 150711Z 33010KT 01/M02 A3018 RMK A01 T00141017  RH  080%=      5-min Rain = 0
KTAS 150712Z 33009KT 01/M02 A3018 RMK A01 T00141017  RH  080%=      5-min Rain = 0
KTAS 150713Z 32010KT 01/M02 A3018 RMK A01 T00141017  RH  080%=      5-min Rain = 0
KTAS 150714Z 33009KT 01/M02 A3018 RMK A01 T00141017  RH  080%=      5-min Rain = 0
KTAS 150715Z 32010KT 01/M02 A3018 RMK A01 T00141017  RH  080%=      5-min Rain = 0
KTAS 150716Z 32010KT 01/M02 A3018 RMK A01 T00131017  RH  080%=      5-min Rain = 0
KTAS 150717Z 32010KT 01/M02 A3018 RMK A01 T00141017  RH  080%=      5-min Rain = 0
KTAS 150718Z 32009KT 01/M02 A3018 RMK A01 T00141017  RH  080%=      5-min Rain = 0
KTAS 150719Z 32009KT 01/M02 A3018 RMK A01 T00141017  RH  080%=      5-min Rain = 0
KTAS 150720Z 32009KT 01/M02 A3018 RMK A01 T00131018  RH  080%=      5-min Rain = 0
KTAS 150721Z 32009KT 01/M02 A3018 RMK A01 T00131018  RH  080%=      5-min Rain = 0
KTAS 150722Z 32009KT 01/M02 A3018 RMK A01 T00131018  RH  080%=      5-min Rain = 0
KTAS 150723Z 32009KT 01/M02 A3018 RMK A01 T00131017  RH  080%=      5-min Rain = 0
KTAS 150724Z 32009KT 01/M02 A3018 RMK A01 T00131017  RH  080%=      5-min Rain = 0
KTAS 150725Z 32009KT 01/M02 A3018 RMK A01 T00131017  RH  080%=      5-min Rain = 0
KTAS 150726Z 33008KT 01/M02 A3018 RMK A01 T00131017  RH  080%=      5-min Rain = 0
KTAS 150727Z 32009KT 01/M02 A3018 RMK A01 T00131018  RH  080%=      5-min Rain = 0
KTAS 150728Z 32009KT 01/M02 A3018 RMK A01 T00131018  RH  080%=      5-min Rain = 0
KTAS 150729Z 32008KT 01/M02 A3018 RMK A01 T00131018  RH  080%=      5-min Rain = 0
KTAS 150730Z 32009KT 01/M02 A3018 RMK A01 T00131018  RH  080%=      5-min Rain = 0
KTAS 150731Z 32009KT 01/M02 A3018 RMK A01 T00131017  RH  080%=      5-min Rain = 0
KTAS 150732Z 32009KT 01/M02 A3018 RMK A01 T00131017  RH  080%=      5-min Rain = 0
KTAS 150733Z 32009KT 01/M02 A3018 RMK A01 T00131018  RH  080%=      5-min Rain = 0
KTAS 150734Z 32009KT 01/M02 A3018 RMK A01 T00131017  RH  080%=      5-min Rain = 0
KTAS 150735Z 32009KT 01/M02 A3018 RMK A01 T00131018  RH  080%=      5-min Rain = 0
KTAS 150736Z 32008KT 01/M02 A3018 RMK A01 T00131018  RH  080%=      5-min Rain = 0
KTAS 150737Z 32009KT 01/M02 A3018 RMK A01 T00121018  RH  080%=      5-min Rain = 0
KTAS 150738Z 32009KT 01/M02 A3018 RMK A01 T00131018  RH  080%=      5-min Rain = 0
KTAS 150739Z 32008KT 01/M02 A3018 RMK A01 T00121018  RH  080%=      5-min Rain = 0
KTAS 150740Z 32008KT 01/M02 A3018 RMK A01 T00121018  RH  080%=      5-min Rain = 0
KTAS 150741Z 32008KT 01/M02 A3018 RMK A01 T00121019  RH  080%=      5-min Rain = 0
KTAS 150742Z 32009KT 01/M02 A3018 RMK A01 T00121019  RH  080%=      5-min Rain = 0
KTAS 150743Z 32009KT 01/M02 A3018 RMK A01 T00111019  RH  080%=      5-min Rain = 0
KTAS 150744Z 32008KT 01/M02 A3018 RMK A01 T00111019  RH  080%=      5-min Rain = 0
KTAS 150745Z 32008KT 01/M02 A3018 RMK A01 T00111019  RH  080%=      5-min Rain = 0
KTAS 150746Z 32008KT 01/M02 A3018 RMK A01 T00111019  RH  081%=      5-min Rain = 0
KTAS 150747Z 32009KT 01/M02 A3018 RMK A01 T00101020  RH  081%=      5-min Rain = 0.01
KTAS 150748Z 32009KT 01/M02 A3018 RMK A01 T00101019  RH  081%=      5-min Rain = 0
KTAS 150749Z 32008KT 01/M02 A3018 RMK A01 T00101019  RH  081%=      5-min Rain = 0
KTAS 150750Z 32009KT 01/M02 A3018 RMK A01 T00101019  RH  081%=      5-min Rain = 0
KTAS 150751Z 32010KT 01/M02 A3018 RMK A01 T00101019  RH  081%=      5-min Rain = 0
KTAS 150752Z 32009KT 01/M02 A3018 RMK A01 T00101019  RH  081%=      5-min Rain = 0
KTAS 150753Z 32009KT 01/M02 A3018 RMK A01 T00091020  RH  081%=      5-min Rain = 0
KTAS 150754Z 32009KT 01/M02 A3018 RMK A01 T00101019  RH  081%=      5-min Rain = 0
KTAS 150755Z 32010KT 01/M02 A3018 RMK A01 T00091019  RH  081%=      5-min Rain = 0
KTAS 150756Z 32009KT 01/M02 A3018 RMK A01 T00091019  RH  081%=      5-min Rain = 0
KTAS 150757Z 32009KT 01/M02 A3018 RMK A01 T00091020  RH  081%=      5-min Rain = 0
KTAS 150758Z 32009KT 01/M02 A3018 RMK A01 T00091019  RH  081%=      5-min Rain = 0
KTAS 150759Z 32009KT 01/M02 A3018 RMK A01 T00091020  RH  081%=      5-min Rain = 0
KTAS 150800Z 32010KT 01/M02 A3018 RMK A01 T00091019  RH  081%=      5-min Rain = 0
KTAS 150801Z 31009KT 01/M02 A3018 RMK A01 T00101019  RH  081%=      5-min Rain = 0
KTAS 150802Z 31009KT 01/M02 A3019 RMK A01 T00101019  RH  081%=      5-min Rain = 0
KTAS 150803Z 32009KT 01/M02 A3019 RMK A01 T00101019  RH  081%=      5-min Rain = 0
KTAS 150804Z 31009KT 01/M02 A3019 RMK A01 T00101020  RH  081%=      5-min Rain = 0
KTAS 150805Z 32009KT 01/M02 A3019 RMK A01 T00101019  RH  081%=      5-min Rain = 0
KTAS 150806Z 32009KT 01/M02 A3019 RMK A01 T00101019  RH  081%=      5-min Rain = 0
KTAS 150807Z 31009KT 01/M02 A3019 RMK A01 T00101019  RH  081%=      5-min Rain = 0
KTAS 150808Z 31009KT 01/M02 A3019 RMK A01 T00101020  RH  080%=      5-min Rain = 0
KTAS 150809Z 32009KT 01/M02 A3019 RMK A01 T00101020  RH  080%=      5-min Rain = 0
KTAS 150810Z 32009KT 01/M02 A3019 RMK A01 T00101020  RH  080%=      5-min Rain = 0
KTAS 150811Z 32009KT 01/M02 A3018 RMK A01 T00091020  RH  080%=      5-min Rain = 0
KTAS 150812Z 31009KT 01/M02 A3018 RMK A01 T00101020  RH  081%=      5-min Rain = 0
KTAS 150813Z 32009KT 01/M02 A3019 RMK A01 T00111019  RH  080%=      5-min Rain = 0
KTAS 150814Z 31009KT 01/M02 A3019 RMK A01 T00111020  RH  080%=      5-min Rain = 0
KTAS 150815Z 31008KT 01/M02 A3019 RMK A01 T00111020  RH  080%=      5-min Rain = 0
KTAS 150816Z 31009KT 01/M02 A3019 RMK A01 T00101020  RH  080%=      5-min Rain = 0
KTAS 150817Z 31008KT 01/M02 A3019 RMK A01 T00111020  RH  080%=      5-min Rain = 0
KTAS 150818Z 31008KT 01/M02 A3019 RMK A01 T00111020  RH  080%=      5-min Rain = 0
KTAS 150819Z 31007KT 01/M02 A3019 RMK A01 T00111020  RH  080%=      5-min Rain = 0
KTAS 150820Z 31008KT 01/M02 A3019 RMK A01 T00111021  RH  080%=      5-min Rain = 0
KTAS 150821Z 31008KT 01/M02 A3019 RMK A01 T00101021  RH  080%=      5-min Rain = 0
KTAS 150822Z 31008KT 01/M02 A3019 RMK A01 T00111021  RH  080%=      5-min Rain = 0
KTAS 150823Z 31008KT 01/M02 A3019 RMK A01 T00111021  RH  080%=      5-min Rain = 0
KTAS 150824Z 31008KT 01/M02 A3019 RMK A01 T00111021  RH  079%=      5-min Rain = 0
KTAS 150825Z 31009KT 01/M02 A3019 RMK A01 T00111021  RH  079%=      5-min Rain = 0
KTAS 150826Z 31009KT 01/M02 A3019 RMK A01 T00111021  RH  080%=      5-min Rain = 0
KTAS 150827Z 31009KT 01/M02 A3019 RMK A01 T00111021  RH  080%=      5-min Rain = 0
KTAS 150828Z 31008KT 01/M02 A3019 RMK A01 T00111021  RH  080%=      5-min Rain = 0
KTAS 150829Z 31008KT 01/M02 A3019 RMK A01 T00101021  RH  080%=      5-min Rain = 0
KTAS 150830Z 31009KT 01/M02 A3019 RMK A01 T00101021  RH  080%=      5-min Rain = 0
KTAS 150831Z 31009KT 01/M02 A3019 RMK A01 T00101021  RH  080%=      5-min Rain = 0
KTAS 150832Z 31008KT 01/M02 A3019 RMK A01 T00111020  RH  080%=      5-min Rain = 0
KTAS 150833Z 31009KT 01/M02 A3019 RMK A01 T00111021  RH  079%=      5-min Rain = 0
KTAS 150834Z 31009KT 01/M02 A3019 RMK A01 T00111021  RH  079%=      5-min Rain = 0
KTAS 150835Z 31009KT 01/M02 A3019 RMK A01 T00121020  RH  079%=      5-min Rain = 0
KTAS 150836Z 31008KT 01/M02 A3019 RMK A01 T00121021  RH  079%=      5-min Rain = 0
KTAS 150837Z 31009KT 01/M02 A3019 RMK A01 T00111021  RH  079%=      5-min Rain = 0
KTAS 150838Z 31007KT 01/M02 A3019 RMK A01 T00111021  RH  079%=      5-min Rain = 0
KTAS 150839Z 30010KT 01/M02 A3019 RMK A01 T00111021  RH  080%=      5-min Rain = 0
KTAS 150840Z 31008KT 01/M02 A3019 RMK A01 T00111020  RH  079%=      5-min Rain = 0
KTAS 150841Z 31008KT 01/M02 A3019 RMK A01 T00101021  RH  080%=      5-min Rain = 0
KTAS 150842Z 31008KT 01/M02 A3019 RMK A01 T00101021  RH  080%=      5-min Rain = 0
KTAS 150843Z 31009KT 01/M02 A3019 RMK A01 T00101021  RH  080%=      5-min Rain = 0
KTAS 150844Z 31008KT 01/M02 A3019 RMK A01 T00101021  RH  080%=      5-min Rain = 0
KTAS 150845Z 31009KT 01/M02 A3019 RMK A01 T00111021  RH  080%=      5-min Rain = 0
KTAS 150846Z 31008KT 01/M02 A3019 RMK A01 T00111020  RH  080%=      5-min Rain = 0
KTAS 150847Z 31010KT 01/M02 A3019 RMK A01 T00111020  RH  079%=      5-min Rain = 0
KTAS 150848Z 31008KT 01/M02 A3019 RMK A01 T00111021  RH  079%=      5-min Rain = 0
KTAS 150849Z 31009KT 01/M02 A3019 RMK A01 T00111021  RH  079%=      5-min Rain = 0
KTAS 150850Z 31009KT 01/M02 A3019 RMK A01 T00101021  RH  079%=      5-min Rain = 0
KTAS 150851Z 31009KT 01/M02 A3019 RMK A01 T00101021  RH  080%=      5-min Rain = 0
KTAS 150852Z 32009KT 01/M02 A3019 RMK A01 T00111021  RH  080%=      5-min Rain = 0
KTAS 150853Z 31009KT 01/M02 A3019 RMK A01 T00101021  RH  079%=      5-min Rain = 0
KTAS 150854Z 31008KT 01/M02 A3019 RMK A01 T00101021  RH  080%=      5-min Rain = 0
KTAS 150855Z 31009KT 01/M02 A3019 RMK A01 T00101021  RH  080%=      5-min Rain = 0
KTAS 150856Z 31008KT 01/M02 A3019 RMK A01 T00101021  RH  080%=      5-min Rain = 0
KTAS 150857Z 31009KT 01/M02 A3019 RMK A01 T00101021  RH  080%=      5-min Rain = 0
KTAS 150858Z 31009KT 01/M02 A3019 RMK A01 T00101021  RH  079%=      5-min Rain = 0
KTAS 150859Z 31008KT 01/M02 A3019 RMK A01 T00101022  RH  080%=      5-min Rain = 0
KTAS 150900Z 31009KT 01/M02 A3019 RMK A01 T00101021  RH  080%=      5-min Rain = 0
KTAS 150901Z 31009KT 01/M02 A3019 RMK A01 T00101021  RH  080%=      5-min Rain = 0
KTAS 150902Z 31009KT 01/M02 A3019 RMK A01 T00091021  RH  080%=      5-min Rain = 0
KTAS 150903Z 31009KT 01/M02 A3018 RMK A01 T00101021  RH  080%=      5-min Rain = 0
KTAS 150904Z 31008KT 01/M02 A3018 RMK A01 T00091021  RH  080%=      5-min Rain = 0
KTAS 150905Z 31009KT 01/M02 A3018 RMK A01 T00091022  RH  080%=      5-min Rain = 0
KTAS 150906Z 32010KT 01/M02 A3018 RMK A01 T00091022  RH  080%=      5-min Rain = 0
KTAS 150907Z 32009KT 01/M02 A3018 RMK A01 T00091021  RH  080%=      5-min Rain = 0
KTAS 150908Z 31009KT 01/M02 A3018 RMK A01 T00101021  RH  080%=      5-min Rain = 0
KTAS 150909Z 31008KT 01/M02 A3018 RMK A01 T00091021  RH  080%=      5-min Rain = 0
KTAS 150910Z 31009KT 01/M02 A3018 RMK A01 T00091022  RH  080%=      5-min Rain = 0
KTAS 150911Z 31009KT 01/M02 A3018 RMK A01 T00091021  RH  080%=      5-min Rain = 0
KTAS 150912Z 31009KT 01/M02 A3018 RMK A01 T00101021  RH  080%=      5-min Rain = 0
KTAS 150913Z 31009KT 01/M02 A3018 RMK A01 T00091022  RH  080%=      5-min Rain = 0
KTAS 150914Z 31008KT 01/M02 A3018 RMK A01 T00091022  RH  080%=      5-min Rain = 0
KTAS 150915Z 31008KT 01/M02 A3019 RMK A01 T00091022  RH  080%=      5-min Rain = 0
KTAS 150916Z 31008KT 01/M02 A3019 RMK A01 T00081022  RH  080%=      5-min Rain = 0
KTAS 150917Z 31008KT 01/M02 A3019 RMK A01 T00081022  RH  080%=      5-min Rain = 0
KTAS 150918Z 31009KT 01/M02 A3019 RMK A01 T00081022  RH  081%=      5-min Rain = 0
KTAS 150919Z 31009KT 01/M02 A3019 RMK A01 T00081022  RH  081%=      5-min Rain = 0
KTAS 150920Z 31009KT 01/M02 A3019 RMK A01 T00081022  RH  081%=      5-min Rain = 0
KTAS 150921Z 31008KT 01/M02 A3019 RMK A01 T00071022  RH  081%=      5-min Rain = 0
KTAS 150922Z 31009KT 01/M02 A3019 RMK A01 T00071022  RH  081%=      5-min Rain = 0
KTAS 150923Z 31009KT 01/M02 A3019 RMK A01 T00061022  RH  081%=      5-min Rain = 0
KTAS 150924Z 31009KT 01/M02 A3019 RMK A01 T00061022  RH  081%=      5-min Rain = 0
KTAS 150925Z 31009KT 01/M02 A3019 RMK A01 T00061022  RH  082%=      5-min Rain = 0
KTAS 150926Z 31009KT 01/M02 A3018 RMK A01 T00061022  RH  082%=      5-min Rain = 0
KTAS 150927Z 31010KT 01/M02 A3018 RMK A01 T00051022  RH  082%=      5-min Rain = 0
KTAS 150928Z 31009KT 01/M02 A3018 RMK A01 T00061022  RH  082%=      5-min Rain = 0
KTAS 150929Z 31009KT 01/M02 A3018 RMK A01 T00061021  RH  082%=      5-min Rain = 0
KTAS 150930Z 31009KT 01/M02 A3018 RMK A01 T00061021  RH  082%=      5-min Rain = 0
KTAS 150931Z 31009KT 01/M02 A3018 RMK A01 T00061021  RH  082%=      5-min Rain = 0
KTAS 150932Z 31009KT 01/M02 A3018 RMK A01 T00061021  RH  082%=      5-min Rain = 0
KTAS 150933Z 31010KT 01/M02 A3018 RMK A01 T00071021  RH  082%=      5-min Rain = 0
KTAS 150934Z 31010KT 01/M02 A3018 RMK A01 T00071021  RH  082%=      5-min Rain = 0
KTAS 150935Z 31009KT 01/M02 A3018 RMK A01 T00071021  RH  082%=      5-min Rain = 0
KTAS 150936Z 31010KT 01/M02 A3018 RMK A01 T00071021  RH  081%=      5-min Rain = 0
KTAS 150937Z 31010KT 01/M02 A3018 RMK A01 T00071021  RH  081%=      5-min Rain = 0
KTAS 150938Z 31009KT 01/M02 A3018 RMK A01 T00071022  RH  081%=      5-min Rain = 0
KTAS 150939Z 31010KT 01/M02 A3018 RMK A01 T00071021  RH  081%=      5-min Rain = 0
KTAS 150940Z 31010KT 01/M02 A3018 RMK A01 T00071021  RH  081%=      5-min Rain = 0
KTAS 150941Z 31009KT 01/M02 A3018 RMK A01 T00071021  RH  081%=      5-min Rain = 0
KTAS 150942Z 31009KT 01/M02 A3018 RMK A01 T00071021  RH  081%=      5-min Rain = 0
KTAS 150943Z 31009KT 01/M02 A3018 RMK A01 T00071021  RH  081%=      5-min Rain = 0
KTAS 150944Z 31009KT 01/M02 A3018 RMK A01 T00071022  RH  081%=      5-min Rain = 0
KTAS 150945Z 31009KT 01/M02 A3018 RMK A01 T00071022  RH  081%=      5-min Rain = 0
KTAS 150946Z 31010KT 01/M02 A3018 RMK A01 T00061022  RH  081%=      5-min Rain = 0
KTAS 150947Z 31010KT 01/M02 A3018 RMK A01 T00071022  RH  081%=      5-min Rain = 0
KTAS 150948Z 31010KT 01/M02 A3018 RMK A01 T00071021  RH  081%=      5-min Rain = 0
KTAS 150949Z 31009KT 01/M02 A3018 RMK A01 T00071022  RH  081%=      5-min Rain = 0
KTAS 150950Z 31009KT 01/M02 A3018 RMK A01 T00061022  RH  081%=      5-min Rain = 0
KTAS 150951Z 31010KT 01/M02 A3018 RMK A01 T00061022  RH  082%=      5-min Rain = 0
KTAS 150952Z 31010KT 01/M02 A3018 RMK A01 T00061022  RH  082%=      5-min Rain = 0
KTAS 150953Z 31010KT 01/M02 A3018 RMK A01 T00061022  RH  082%=      5-min Rain = 0
KTAS 150954Z 31010KT 01/M02 A3018 RMK A01 T00061022  RH  082%=      5-min Rain = 0
KTAS 150955Z 31010KT 01/M02 A3018 RMK A01 T00061021  RH  082%=      5-min Rain = 0
KTAS 150956Z 31009KT 01/M02 A3018 RMK A01 T00061022  RH  082%=      5-min Rain = 0
KTAS 150957Z 31009KT 01/M02 A3018 RMK A01 T00061022  RH  082%=      5-min Rain = 0
KTAS 150958Z 31010KT 01/M02 A3018 RMK A01 T00061022  RH  082%=      5-min Rain = 0
KTAS 150959Z 30008KT 01/M02 A3018 RMK A01 T00051022  RH  082%=      5-min Rain = 0
KTAS 151000Z 31009KT 01/M02 A3018 RMK A01 T00061021  RH  082%=      5-min Rain = 0
KTAS 151001Z 30008KT 01/M02 A3019 RMK A01 T00061022  RH  082%=      5-min Rain = 0
KTAS 151002Z 30008KT 01/M02 A3019 RMK A01 T00051022  RH  082%=      5-min Rain = 0
KTAS 151003Z 30009KT 01/M02 A3019 RMK A01 T00051022  RH  082%=      5-min Rain = 0
KTAS 151004Z 30008KT 01/M02 A3019 RMK A01 T00051022  RH  082%=      5-min Rain = 0
KTAS 151005Z 30008KT 01/M02 A3019 RMK A01 T00051022  RH  082%=      5-min Rain = 0
KTAS 151006Z 30009KT 01/M02 A3019 RMK A01 T00051022  RH  082%=      5-min Rain = 0
KTAS 151007Z 30008KT 01/M02 A3019 RMK A01 T00051022  RH  082%=      5-min Rain = 0
KTAS 151008Z 30007KT 01/M02 A3019 RMK A01 T00051022  RH  082%=      5-min Rain = 0
KTAS 151009Z 30008KT 00/M02 A3019 RMK A01 T00041022  RH  082%=      5-min Rain = 0
KTAS 151010Z 30009KT 01/M02 A3019 RMK A01 T00051021  RH  083%=      5-min Rain = 0
KTAS 151011Z 30008KT 01/M02 A3019 RMK A01 T00051021  RH  083%=      5-min Rain = 0
KTAS 151012Z 30008KT 01/M02 A3019 RMK A01 T00051022  RH  082%=      5-min Rain = 0
KTAS 151013Z 30009KT 00/M02 A3019 RMK A01 T00041022  RH  083%=      5-min Rain = 0
KTAS 151014Z 30008KT 00/M02 A3019 RMK A01 T00041022  RH  083%=      5-min Rain = 0
KTAS 151015Z 30008KT 00/M02 A3019 RMK A01 T00041022  RH  083%=      5-min Rain = 0
KTAS 151016Z 30008KT 00/M02 A3019 RMK A01 T00041022  RH  083%=      5-min Rain = 0
KTAS 151017Z 30008KT 00/M02 A3019 RMK A01 T00041021  RH  083%=      5-min Rain = 0
KTAS 151018Z 30008KT 00/M02 A3019 RMK A01 T00041021  RH  083%=      5-min Rain = 0
KTAS 151019Z 30007KT 00/M02 A3019 RMK A01 T00041021  RH  083%=      5-min Rain = 0
KTAS 151020Z 29007KT 00/M02 A3019 RMK A01 T00041022  RH  083%=      5-min Rain = 0
KTAS 151021Z 30008KT 00/M02 A3019 RMK A01 T00041021  RH  083%=      5-min Rain = 0
KTAS 151022Z 30007KT 00/M02 A3019 RMK A01 T00041021  RH  083%=      5-min Rain = 0
KTAS 151023Z 30007KT 00/M02 A3019 RMK A01 T00031022  RH  083%=      5-min Rain = 0
KTAS 151024Z 30007KT 00/M02 A3019 RMK A01 T00031022  RH  083%=      5-min Rain = 0
KTAS 151025Z 30008KT 00/M02 A3019 RMK A01 T00021022  RH  084%=      5-min Rain = 0
KTAS 151026Z 30007KT 00/M02 A3019 RMK A01 T00031021  RH  084%=      5-min Rain = 0
KTAS 151027Z 30008KT 00/M02 A3019 RMK A01 T00031021  RH  084%=      5-min Rain = 0
KTAS 151028Z 30008KT 00/M02 A3019 RMK A01 T00031021  RH  084%=      5-min Rain = 0
KTAS 151029Z 30008KT 00/M02 A3019 RMK A01 T00031021  RH  084%=      5-min Rain = 0
KTAS 151030Z 30008KT 00/M02 A3019 RMK A01 T00031021  RH  084%=      5-min Rain = 0
KTAS 151031Z 30008KT 00/M02 A3019 RMK A01 T00031021  RH  084%=      5-min Rain = 0
KTAS 151032Z 30007KT 00/M02 A3019 RMK A01 T00021022  RH  084%=      5-min Rain = 0
KTAS 151033Z 30007KT 00/M02 A3019 RMK A01 T00021021  RH  084%=      5-min Rain = 0
KTAS 151034Z 30008KT 00/M02 A3019 RMK A01 T00021021  RH  084%=      5-min Rain = 0
KTAS 151035Z 30008KT 00/M02 A3019 RMK A01 T00021021  RH  084%=      5-min Rain = 0
KTAS 151036Z 30008KT 00/M02 A3019 RMK A01 T00021021  RH  084%=      5-min Rain = 0
KTAS 151037Z 30008KT 00/M02 A3019 RMK A01 T00021021  RH  084%=      5-min Rain = 0
KTAS 151038Z 30007KT 00/M02 A3019 RMK A01 T00021021  RH  084%=      5-min Rain = 0
KTAS 151039Z 30007KT 00/M02 A3019 RMK A01 T00021021  RH  085%=      5-min Rain = 0
KTAS 151040Z 30007KT 00/M02 A3019 RMK A01 T00021021  RH  085%=      5-min Rain = 0
KTAS 151041Z 30007KT 00/M02 A3019 RMK A01 T00021021  RH  085%=      5-min Rain = 0
KTAS 151042Z 30007KT 00/M02 A3019 RMK A01 T00021021  RH  085%=      5-min Rain = 0
KTAS 151043Z 29007KT 00/M02 A3019 RMK A01 T00021021  RH  085%=      5-min Rain = 0
KTAS 151044Z 29007KT 00/M02 A3019 RMK A01 T00021021  RH  085%=      5-min Rain = 0
KTAS 151045Z 29007KT 00/M02 A3019 RMK A01 T00021021  RH  085%=      5-min Rain = 0
KTAS 151046Z 29007KT 00/M02 A3019 RMK A01 T00011021  RH  085%=      5-min Rain = 0
KTAS 151047Z 29007KT 00/M02 A3019 RMK A01 T00011022  RH  085%=      5-min Rain = 0
KTAS 151048Z 29006KT 00/02 A3019 RMK A01 T00-00-22  RH  085%=      5-min Rain = 0
KTAS 151049Z 29006KT 00/02 A3019 RMK A01 T00-00-23  RH  085%=      5-min Rain = 0
KTAS 151050Z 29007KT 00/02 A3019 RMK A01 T00-00-23  RH  085%=      5-min Rain = 0
KTAS 151051Z 29006KT 00/02 A3019 RMK A01 T00-00-22  RH  085%=      5-min Rain = 0
KTAS 151052Z 29006KT M00/M02 A3019 RMK A01 T10011023  RH  085%=      5-min Rain = 0
KTAS 151053Z 29006KT M00/M02 A3019 RMK A01 T10011023  RH  085%=      5-min Rain = 0
KTAS 151054Z 29007KT M00/M02 A3019 RMK A01 T10011023  RH  085%=      5-min Rain = 0
KTAS 151055Z 29008KT M00/M02 A3019 RMK A01 T10011022  RH  085%=      5-min Rain = 0
KTAS 151056Z 30008KT 00/M02 A3019 RMK A01 T00011021  RH  085%=      5-min Rain = 0
KTAS 151057Z 29007KT 00/M02 A3019 RMK A01 T00021020  RH  085%=      5-min Rain = 0
KTAS 151058Z 29008KT 00/M02 A3019 RMK A01 T00021020  RH  085%=      5-min Rain = 0
KTAS 151059Z 29008KT 00/M02 A3019 RMK A01 T00021021  RH  085%=      5-min Rain = 0
KTAS 151100Z 29007KT 00/M02 A3019 RMK A01 T00011022  RH  085%=      5-min Rain = 0
KTAS 151101Z 30007KT 00/M02 A3019 RMK A01 T00011022  RH  085%=      5-min Rain = 0
KTAS 151102Z 30006KT 00/02 A3019 RMK A01 T00000-22  RH  085%=      5-min Rain = 0
KTAS 151103Z 29007KT 00/02 A3019 RMK A01 T00-00-23  RH  085%=      5-min Rain = 0
KTAS 151104Z 30007KT 00/02 A3019 RMK A01 T00-00-23  RH  085%=      5-min Rain = 0
KTAS 151105Z 30008KT 00/02 A3019 RMK A01 T00000-22  RH  085%=      5-min Rain = 0
KTAS 151106Z 30009KT 00/M02 A3019 RMK A01 T00021020  RH  085%=      5-min Rain = 0
KTAS 151107Z 30007KT 00/M02 A3019 RMK A01 T00031020  RH  085%=      5-min Rain = 0
KTAS 151108Z 29008KT 00/M02 A3019 RMK A01 T00031020  RH  085%=      5-min Rain = 0
KTAS 151109Z 30008KT 00/M02 A302 RMK A01 T00031020  RH  084%=      5-min Rain = 0
KTAS 151110Z 30008KT 00/M02 A302 RMK A01 T00031021  RH  084%=      5-min Rain = 0
KTAS 151111Z 30009KT 00/M02 A302 RMK A01 T00031020  RH  084%=      5-min Rain = 0
KTAS 151112Z 30008KT 00/M02 A302 RMK A01 T00041019  RH  084%=      5-min Rain = 0
KTAS 151113Z 30008KT 00/M02 A302 RMK A01 T00041020  RH  084%=      5-min Rain = 0
KTAS 151114Z 29008KT 00/M02 A302 RMK A01 T00041020  RH  084%=      5-min Rain = 0
KTAS 151115Z 30010KT 00/M02 A302 RMK A01 T00041020  RH  084%=      5-min Rain = 0
KTAS 151116Z 29009KT 01/M02 A302 RMK A01 T00051019  RH  084%=      5-min Rain = 0
KTAS 151117Z 29008KT 01/M02 A302 RMK A01 T00051019  RH  084%=      5-min Rain = 0
KTAS 151118Z 30009KT 01/M02 A302 RMK A01 T00051020  RH  084%=      5-min Rain = 0
KTAS 151119Z 30009KT 00/M02 A302 RMK A01 T00041020  RH  084%=      5-min Rain = 0
KTAS 151120Z 30009KT 00/M02 A302 RMK A01 T00041020  RH  084%=      5-min Rain = 0
KTAS 151121Z 30009KT 00/M02 A302 RMK A01 T00041020  RH  084%=      5-min Rain = 0
KTAS 151122Z 30008KT 01/M02 A302 RMK A01 T00051020  RH  084%=      5-min Rain = 0
KTAS 151123Z 30008KT 00/M02 A302 RMK A01 T00041020  RH  084%=      5-min Rain = 0
KTAS 151124Z 30008KT 00/M02 A302 RMK A01 T00041020  RH  084%=      5-min Rain = 0
KTAS 151125Z 30009KT 00/M02 A302 RMK A01 T00041020  RH  084%=      5-min Rain = 0
KTAS 151126Z 30008KT 01/M02 A302 RMK A01 T00051019  RH  084%=      5-min Rain = 0
KTAS 151127Z 30008KT 01/M02 A302 RMK A01 T00051019  RH  084%=      5-min Rain = 0
KTAS 151128Z 30008KT 01/M02 A302 RMK A01 T00051019  RH  084%=      5-min Rain = 0
KTAS 151129Z 30009KT 01/M02 A302 RMK A01 T00051019  RH  083%=      5-min Rain = 0
KTAS 151130Z 30008KT 01/M02 A302 RMK A01 T00061019  RH  083%=      5-min Rain = 0
KTAS 151131Z 30009KT 01/M02 A302 RMK A01 T00061019  RH  083%=      5-min Rain = 0
KTAS 151132Z 30009KT 01/M02 A302 RMK A01 T00061019  RH  083%=      5-min Rain = 0
KTAS 151133Z 30009KT 01/M02 A302 RMK A01 T00061020  RH  083%=      5-min Rain = 0
KTAS 151134Z 30010KT 01/M02 A302 RMK A01 T00061020  RH  083%=      5-min Rain = 0
KTAS 151135Z 30009KT 01/M02 A302 RMK A01 T00071019  RH  083%=      5-min Rain = 0
KTAS 151136Z 30009KT 01/M02 A302 RMK A01 T00061020  RH  083%=      5-min Rain = 0
KTAS 151137Z 30008KT 01/M02 A302 RMK A01 T00061021  RH  083%=      5-min Rain = 0
KTAS 151138Z 31009KT 01/M02 A302 RMK A01 T00061020  RH  083%=      5-min Rain = 0
KTAS 151139Z 31008KT 01/M02 A302 RMK A01 T00061020  RH  083%=      5-min Rain = 0
KTAS 151140Z 31009KT 01/M02 A302 RMK A01 T00051020  RH  083%=      5-min Rain = 0
KTAS 151141Z 31008KT 01/M02 A302 RMK A01 T00051021  RH  083%=      5-min Rain = 0
KTAS 151142Z 31008KT 01/M02 A302 RMK A01 T00051021  RH  083%=      5-min Rain = 0
KTAS 151143Z 31008KT 00/M02 A302 RMK A01 T00041021  RH  083%=      5-min Rain = 0
KTAS 151144Z 31009KT 00/M02 A302 RMK A01 T00041021  RH  083%=      5-min Rain = 0
KTAS 151145Z 31008KT 01/M02 A302 RMK A01 T00051020  RH  083%=      5-min Rain = 0
KTAS 151146Z 31008KT 01/M02 A302 RMK A01 T00051021  RH  083%=      5-min Rain = 0
KTAS 151147Z 31009KT 01/M02 A302 RMK A01 T00051020  RH  083%=      5-min Rain = 0
KTAS 151148Z 31009KT 01/M02 A302 RMK A01 T00051021  RH  083%=      5-min Rain = 0
KTAS 151149Z 31008KT 01/M02 A302 RMK A01 T00061021  RH  083%=      5-min Rain = 0
KTAS 151150Z 31008KT 01/M02 A302 RMK A01 T00051021  RH  083%=      5-min Rain = 0
KTAS 151151Z 31009KT 01/M02 A302 RMK A01 T00051021  RH  083%=      5-min Rain = 0
KTAS 151152Z 31008KT 01/M02 A302 RMK A01 T00051021  RH  083%=      5-min Rain = 0
KTAS 151153Z 31008KT 01/M02 A302 RMK A01 T00051021  RH  083%=      5-min Rain = 0
KTAS 151154Z 31008KT 01/M02 A302 RMK A01 T00051022  RH  083%=      5-min Rain = 0
KTAS 151155Z 31008KT 01/M02 A302 RMK A01 T00051021  RH  083%=      5-min Rain = 0
KTAS 151156Z 31008KT 00/M02 A302 RMK A01 T00041022  RH  083%=      5-min Rain = 0
KTAS 151157Z 31008KT 01/M02 A302 RMK A01 T00051021  RH  083%=      5-min Rain = 0
KTAS 151158Z 31009KT 01/M02 A302 RMK A01 T00051021  RH  083%=      5-min Rain = 0
KTAS 151159Z 31008KT 01/M02 A302 RMK A01 T00051021  RH  083%=      5-min Rain = 0
KTAS 151200Z 31008KT 01/M02 A302 RMK A01 T00051021  RH  083%=      5-min Rain = 0
KTAS 151201Z 31009KT 00/M02 A302 RMK A01 T00041022  RH  083%=      5-min Rain = 0
KTAS 151202Z 31008KT 01/M02 A302 RMK A01 T00051021  RH  083%=      5-min Rain = 0
KTAS 151203Z 31008KT 01/M02 A302 RMK A01 T00051022  RH  082%=      5-min Rain = 0
KTAS 151204Z 31008KT 00/M02 A302 RMK A01 T00041022  RH  083%=      5-min Rain = 0
KTAS 151205Z 31009KT 00/M02 A302 RMK A01 T00031022  RH  083%=      5-min Rain = 0
KTAS 151206Z 31009KT 00/M02 A302 RMK A01 T00041022  RH  083%=      5-min Rain = 0
KTAS 151207Z 30008KT 01/M02 A302 RMK A01 T00051021  RH  083%=      5-min Rain = 0
KTAS 151208Z 31009KT 00/M02 A302 RMK A01 T00041022  RH  083%=      5-min Rain = 0
KTAS 151209Z 31009KT 00/M02 A302 RMK A01 T00041022  RH  083%=      5-min Rain = 0
KTAS 151210Z 31009KT 00/M02 A302 RMK A01 T00041022  RH  083%=      5-min Rain = 0
KTAS 151211Z 31008KT 00/M02 A3019 RMK A01 T00041022  RH  083%=      5-min Rain = 0
KTAS 151212Z 31009KT 00/M02 A3019 RMK A01 T00041022  RH  083%=      5-min Rain = 0
KTAS 151213Z 31010KT 01/M02 A3019 RMK A01 T00051021  RH  083%=      5-min Rain = 0
KTAS 151214Z 31009KT 01/M02 A3019 RMK A01 T00051021  RH  083%=      5-min Rain = 0
KTAS 151215Z 31009KT 01/M02 A3019 RMK A01 T00051022  RH  082%=      5-min Rain = 0
KTAS 151216Z 31009KT 01/M02 A3019 RMK A01 T00051022  RH  082%=      5-min Rain = 0
KTAS 151217Z 31009KT 00/M02 A3019 RMK A01 T00041022  RH  082%=      5-min Rain = 0
KTAS 151218Z 31010KT 00/M02 A3019 RMK A01 T00041022  RH  082%=      5-min Rain = 0
KTAS 151219Z 31010KT 01/M02 A3019 RMK A01 T00051022  RH  082%=      5-min Rain = 0
KTAS 151220Z 31010KT 01/M02 A3019 RMK A01 T00051022  RH  082%=      5-min Rain = 0
KTAS 151221Z 31010KT 01/M02 A3019 RMK A01 T00061021  RH  082%=      5-min Rain = 0
KTAS 151222Z 31009KT 01/M02 A302 RMK A01 T00061022  RH  082%=      5-min Rain = 0
KTAS 151223Z 31010KT 01/M02 A302 RMK A01 T00051022  RH  082%=      5-min Rain = 0
KTAS 151224Z 31009KT 01/M02 A302 RMK A01 T00051022  RH  082%=      5-min Rain = 0
KTAS 151225Z 31009KT 01/M02 A302 RMK A01 T00061022  RH  082%=      5-min Rain = 0
KTAS 151226Z 31010KT 01/M02 A302 RMK A01 T00051023  RH  082%=      5-min Rain = 0
KTAS 151227Z 31009KT 01/M02 A302 RMK A01 T00051023  RH  082%=      5-min Rain = 0
KTAS 151228Z 31010KT 01/M02 A302 RMK A01 T00051023  RH  082%=      5-min Rain = 0
KTAS 151229Z 31009KT 01/M02 A302 RMK A01 T00051022  RH  082%=      5-min Rain = 0
KTAS 151230Z 31009KT 01/M02 A302 RMK A01 T00051023  RH  082%=      5-min Rain = 0
KTAS 151231Z 31009KT 01/M02 A302 RMK A01 T00051023  RH  082%=      5-min Rain = 0
KTAS 151232Z 31009KT 01/M02 A302 RMK A01 T00051023  RH  081%=      5-min Rain = 0
KTAS 151233Z 31009KT 01/M02 A302 RMK A01 T00051023  RH  081%=      5-min Rain = 0
KTAS 151234Z 31008KT 01/M02 A302 RMK A01 T00051023  RH  081%=      5-min Rain = 0
KTAS 151235Z 31009KT 00/M02 A302 RMK A01 T00041024  RH  082%=      5-min Rain = 0
KTAS 151236Z 31009KT 00/M02 A302 RMK A01 T00041024  RH  082%=      5-min Rain = 0
KTAS 151237Z 31008KT 00/M02 A302 RMK A01 T00041023  RH  082%=      5-min Rain = 0
KTAS 151238Z 31009KT 00/M02 A302 RMK A01 T00041024  RH  082%=      5-min Rain = 0
KTAS 151239Z 31009KT 00/M02 A302 RMK A01 T00041023  RH  082%=      5-min Rain = 0
KTAS 151240Z 31009KT 00/M02 A302 RMK A01 T00041023  RH  082%=      5-min Rain = 0
KTAS 151241Z 31009KT 00/M02 A302 RMK A01 T00041023  RH  082%=      5-min Rain = 0
KTAS 151242Z 31009KT 01/M02 A302 RMK A01 T00051023  RH  082%=      5-min Rain = 0
KTAS 151243Z 31009KT 01/M02 A302 RMK A01 T00051023  RH  081%=      5-min Rain = 0
KTAS 151244Z 32009KT 01/M02 A302 RMK A01 T00051023  RH  081%=      5-min Rain = 0
KTAS 151245Z 32008KT 01/M02 A302 RMK A01 T00051024  RH  081%=      5-min Rain = 0
KTAS 151246Z 32009KT 01/M02 A302 RMK A01 T00051024  RH  081%=      5-min Rain = 0
KTAS 151247Z 31009KT 01/M02 A302 RMK A01 T00051023  RH  081%=      5-min Rain = 0
KTAS 151248Z 31010KT 01/M02 A302 RMK A01 T00051024  RH  081%=      5-min Rain = 0
KTAS 151249Z 32009KT 01/M02 A302 RMK A01 T00061024  RH  081%=      5-min Rain = 0
KTAS 151250Z 32008KT 01/M02 A302 RMK A01 T00051024  RH  081%=      5-min Rain = 0
KTAS 151251Z 31008KT 01/M02 A302 RMK A01 T00051024  RH  081%=      5-min Rain = 0
KTAS 151252Z 31009KT 00/M03 A302 RMK A01 T00041025  RH  081%=      5-min Rain = 0
KTAS 151253Z 31009KT 00/M02 A302 RMK A01 T00041024  RH  081%=      5-min Rain = 0
KTAS 151254Z 32008KT 00/M02 A3021 RMK A01 T00041024  RH  081%=      5-min Rain = 0
KTAS 151255Z 31008KT 00/M03 A3021 RMK A01 T00041025  RH  081%=      5-min Rain = 0
KTAS 151256Z 31008KT 00/M03 A3021 RMK A01 T00041025  RH  081%=      5-min Rain = 0
KTAS 151257Z 32009KT 00/M03 A3021 RMK A01 T00041025  RH  081%=      5-min Rain = 0
KTAS 151258Z 32008KT 00/M02 A3021 RMK A01 T00041024  RH  081%=      5-min Rain = 0
KTAS 151259Z 32009KT 00/M03 A3021 RMK A01 T00041025  RH  081%=      5-min Rain = 0
KTAS 151300Z 31009KT 01/M02 A3021 RMK A01 T00051024  RH  081%=      5-min Rain = 0
KTAS 151301Z 32009KT 01/M02 A3021 RMK A01 T00051024  RH  081%=      5-min Rain = 0
KTAS 151302Z 32009KT 01/M02 A3021 RMK A01 T00051024  RH  081%=      5-min Rain = 0
KTAS 151303Z 32009KT 01/M03 A3021 RMK A01 T00051025  RH  081%=      5-min Rain = 0
KTAS 151304Z 32009KT 01/M03 A3021 RMK A01 T00051025  RH  081%=      5-min Rain = 0
KTAS 151305Z 31009KT 01/M03 A3021 RMK A01 T00051025  RH  081%=      5-min Rain = 0
KTAS 151306Z 32009KT 01/M03 A3021 RMK A01 T00051025  RH  081%=      5-min Rain = 0
KTAS 151307Z 32009KT 01/M03 A3021 RMK A01 T00051025  RH  081%=      5-min Rain = 0
KTAS 151308Z 32009KT 00/M03 A3021 RMK A01 T00041025  RH  081%=      5-min Rain = 0
KTAS 151309Z 32009KT 00/M03 A3021 RMK A01 T00041025  RH  081%=      5-min Rain = 0
KTAS 151310Z 32009KT 00/M03 A3021 RMK A01 T00031026  RH  081%=      5-min Rain = 0
KTAS 151311Z 32009KT 00/M03 A3021 RMK A01 T00031025  RH  081%=      5-min Rain = 0
KTAS 151312Z 32009KT 00/M03 A3021 RMK A01 T00031025  RH  081%=      5-min Rain = 0
KTAS 151313Z 32008KT 00/M03 A3021 RMK A01 T00031025  RH  081%=      5-min Rain = 0
KTAS 151314Z 32008KT 00/M03 A3021 RMK A01 T00031025  RH  081%=      5-min Rain = 0
KTAS 151315Z 32009KT 00/M03 A3021 RMK A01 T00031025  RH  081%=      5-min Rain = 0
KTAS 151316Z 32009KT 00/M03 A3021 RMK A01 T00041025  RH  081%=      5-min Rain = 0
KTAS 151317Z 32009KT 00/M03 A3021 RMK A01 T00041025  RH  081%=      5-min Rain = 0
KTAS 151318Z 32009KT 00/M03 A3021 RMK A01 T00041025  RH  081%=      5-min Rain = 0
KTAS 151319Z 32009KT 00/M03 A3021 RMK A01 T00041026  RH  081%=      5-min Rain = 0
KTAS 151320Z 32009KT 00/M03 A3021 RMK A01 T00031026  RH  081%=      5-min Rain = 0
KTAS 151321Z 32009KT 00/M03 A3021 RMK A01 T00041025  RH  081%=      5-min Rain = 0
KTAS 151322Z 32009KT 00/M03 A3021 RMK A01 T00041025  RH  081%=      5-min Rain = 0
KTAS 151323Z 32009KT 00/M03 A3021 RMK A01 T00031026  RH  081%=      5-min Rain = 0
KTAS 151324Z 32009KT 00/M03 A3021 RMK A01 T00031026  RH  081%=      5-min Rain = 0
KTAS 151325Z 32009KT 00/M03 A3021 RMK A01 T00031026  RH  081%=      5-min Rain = 0
KTAS 151326Z 32009KT 00/M03 A3021 RMK A01 T00021026  RH  081%=      5-min Rain = 0
KTAS 151327Z 32009KT 00/M03 A3021 RMK A01 T00021026  RH  082%=      5-min Rain = 0
KTAS 151328Z 32009KT 00/M03 A3021 RMK A01 T00021026  RH  082%=      5-min Rain = 0
KTAS 151329Z 32009KT 00/M03 A3021 RMK A01 T00021025  RH  082%=      5-min Rain = 0
KTAS 151330Z 32009KT 00/M03 A3022 RMK A01 T00021026  RH  082%=      5-min Rain = 0
KTAS 151331Z 32008KT 00/M03 A3022 RMK A01 T00021026  RH  082%=      5-min Rain = 0
KTAS 151332Z 32009KT 00/M03 A3022 RMK A01 T00021026  RH  082%=      5-min Rain = 0
KTAS 151333Z 32009KT 00/M03 A3022 RMK A01 T00021026  RH  082%=      5-min Rain = 0
KTAS 151334Z 33009KT 00/M03 A3022 RMK A01 T00021025  RH  082%=      5-min Rain = 0
KTAS 151335Z 32008KT 00/M03 A3022 RMK A01 T00021025  RH  082%=      5-min Rain = 0
KTAS 151336Z 33009KT 00/M03 A3022 RMK A01 T00021026  RH  082%=      5-min Rain = 0
KTAS 151337Z 33009KT 00/M03 A3022 RMK A01 T00021025  RH  082%=      5-min Rain = 0
KTAS 151338Z 33009KT 00/M03 A3022 RMK A01 T00021025  RH  082%=      5-min Rain = 0
KTAS 151339Z 33009KT 00/M03 A3022 RMK A01 T00031025  RH  082%=      5-min Rain = 0
KTAS 151340Z 33009KT 00/M03 A3022 RMK A01 T00031025  RH  082%=      5-min Rain = 0
KTAS 151341Z 33009KT 00/M03 A3022 RMK A01 T00031025  RH  082%=      5-min Rain = 0
KTAS 151342Z 33009KT 00/M03 A3022 RMK A01 T00031025  RH  082%=      5-min Rain = 0
KTAS 151343Z 33009KT 00/M03 A3022 RMK A01 T00031025  RH  082%=      5-min Rain = 0
KTAS 151344Z 33009KT 00/M03 A3022 RMK A01 T00031025  RH  082%=      5-min Rain = 0
KTAS 151345Z 33009KT 00/M02 A3022 RMK A01 T00031024  RH  082%=      5-min Rain = 0
KTAS 151346Z 33009KT 00/M02 A3022 RMK A01 T00041024  RH  082%=      5-min Rain = 0
KTAS 151347Z 32009KT 00/M02 A3022 RMK A01 T00041024  RH  081%=      5-min Rain = 0
KTAS 151348Z 32008KT 00/M02 A3022 RMK A01 T00041024  RH  081%=      5-min Rain = 0
KTAS 151349Z 33009KT 00/M02 A3023 RMK A01 T00041024  RH  081%=      5-min Rain = 0
KTAS 151350Z 33008KT 00/M02 A3023 RMK A01 T00041024  RH  082%=      5-min Rain = 0
KTAS 151351Z 33007KT 00/M02 A3023 RMK A01 T00041024  RH  082%=      5-min Rain = 0
KTAS 151352Z 33008KT 00/M02 A3023 RMK A01 T00041024  RH  082%=      5-min Rain = 0
KTAS 151353Z 33009KT 00/M02 A3023 RMK A01 T00041023  RH  082%=      5-min Rain = 0
KTAS 151354Z 33008KT 01/M02 A3023 RMK A01 T00051023  RH  082%=      5-min Rain = 0
KTAS 151355Z 33009KT 01/M02 A3023 RMK A01 T00051023  RH  082%=      5-min Rain = 0
KTAS 151356Z 33008KT 01/M02 A3023 RMK A01 T00051023  RH  082%=      5-min Rain = 0
KTAS 151357Z 33008KT 01/M02 A3023 RMK A01 T00061023  RH  081%=      5-min Rain = 0
KTAS 151358Z 33009KT 01/M02 A3023 RMK A01 T00061022  RH  081%=      5-min Rain = 0
KTAS 151359Z 33009KT 01/M02 A3023 RMK A01 T00061022  RH  081%=      5-min Rain = 0
KTAS 151400Z 33009KT 01/M02 A3023 RMK A01 T00071022  RH  081%=      5-min Rain = 0
KTAS 151401Z 33009KT 01/M02 A3023 RMK A01 T00071022  RH  081%=      5-min Rain = 0
KTAS 151402Z 33008KT 01/M02 A3023 RMK A01 T00071022  RH  081%=      5-min Rain = 0
KTAS 151403Z 33009KT 01/M02 A3023 RMK A01 T00081022  RH  081%=      5-min Rain = 0
KTAS 151404Z 32009KT 01/M02 A3023 RMK A01 T00081022  RH  081%=      5-min Rain = 0
KTAS 151405Z 32009KT 01/M02 A3023 RMK A01 T00081022  RH  080%=      5-min Rain = 0
KTAS 151406Z 33010KT 01/M02 A3023 RMK A01 T00091022  RH  080%=      5-min Rain = 0
KTAS 151407Z 33009KT 01/M02 A3023 RMK A01 T00091022  RH  080%=      5-min Rain = 0
KTAS 151408Z 33009KT 01/M02 A3024 RMK A01 T00091022  RH  080%=      5-min Rain = 0
KTAS 151409Z 32009KT 01/M02 A3024 RMK A01 T00101022  RH  079%=      5-min Rain = 0
KTAS 151410Z 33009KT 01/M02 A3024 RMK A01 T00101022  RH  079%=      5-min Rain = 0
KTAS 151411Z 33009KT 01/M02 A3024 RMK A01 T00101021  RH  079%=      5-min Rain = 0
KTAS 151412Z 33010KT 01/M02 A3024 RMK A01 T00101021  RH  079%=      5-min Rain = 0
KTAS 151413Z 33009KT 01/M02 A3024 RMK A01 T00111021  RH  079%=      5-min Rain = 0
KTAS 151414Z 33010KT 01/M02 A3024 RMK A01 T00111021  RH  079%=      5-min Rain = 0
KTAS 151415Z 33007KT 01/M02 A3024 RMK A01 T00111021  RH  079%=      5-min Rain = 0
KTAS 151416Z 33008KT 01/M02 A3024 RMK A01 T00121020  RH  079%=      5-min Rain = 0
KTAS 151417Z 33009KT 01/M02 A3024 RMK A01 T00121020  RH  079%=      5-min Rain = 0
KTAS 151418Z 33008KT 01/M02 A3024 RMK A01 T00121020  RH  079%=      5-min Rain = 0
KTAS 151419Z 33008KT 01/M02 A3024 RMK A01 T00131020  RH  079%=      5-min Rain = 0
KTAS 151420Z 33008KT 01/M02 A3024 RMK A01 T00131020  RH  079%=      5-min Rain = 0
KTAS 151421Z 33009KT 01/M02 A3024 RMK A01 T00131020  RH  078%=      5-min Rain = 0
KTAS 151422Z 33008KT 01/M02 A3024 RMK A01 T00131020  RH  078%=      5-min Rain = 0
KTAS 151423Z 33008KT 01/M02 A3024 RMK A01 T00141020  RH  078%=      5-min Rain = 0
KTAS 151424Z 33008KT 01/M02 A3024 RMK A01 T00141019  RH  078%=      5-min Rain = 0
KTAS 151425Z 33008KT 02/M02 A3024 RMK A01 T00151019  RH  078%=      5-min Rain = 0
KTAS 151426Z 33009KT 02/M02 A3024 RMK A01 T00151020  RH  078%=      5-min Rain = 0
KTAS 151427Z 33008KT 02/M02 A3024 RMK A01 T00151020  RH  078%=      5-min Rain = 0
KTAS 151428Z 33008KT 02/M02 A3024 RMK A01 T00151019  RH  078%=      5-min Rain = 0
KTAS 151429Z 33008KT 02/M02 A3024 RMK A01 T00161019  RH  078%=      5-min Rain = 0
KTAS 151430Z 33009KT 02/M02 A3025 RMK A01 T00161018  RH  078%=      5-min Rain = 0
KTAS 151431Z 33008KT 02/M02 A3025 RMK A01 T00161019  RH  078%=      5-min Rain = 0
KTAS 151432Z 33010KT 02/M02 A3025 RMK A01 T00171018  RH  077%=      5-min Rain = 0
KTAS 151433Z 33009KT 02/M02 A3025 RMK A01 T00171019  RH  077%=      5-min Rain = 0
KTAS 151434Z 33009KT 02/M02 A3025 RMK A01 T00171019  RH  077%=      5-min Rain = 0
KTAS 151435Z 33009KT 02/M02 A3025 RMK A01 T00171019  RH  077%=      5-min Rain = 0
KTAS 151436Z 33009KT 02/M02 A3025 RMK A01 T00181019  RH  077%=      5-min Rain = 0
KTAS 151437Z 33009KT 02/M02 A3025 RMK A01 T00181018  RH  077%=      5-min Rain = 0
KTAS 151438Z 34007KT 02/M02 A3025 RMK A01 T00181018  RH  077%=      5-min Rain = 0
KTAS 151439Z 33008KT 02/M02 A3025 RMK A01 T00191017  RH  077%=      5-min Rain = 0
KTAS 151440Z 34008KT 02/M02 A3025 RMK A01 T00201017  RH  077%=      5-min Rain = 0
KTAS 151441Z 33007KT 02/M02 A3025 RMK A01 T00201016  RH  077%=      5-min Rain = 0
KTAS 151442Z 33009KT 02/M02 A3025 RMK A01 T00211016  RH  076%=      5-min Rain = 0
KTAS 151443Z 34009KT 02/M02 A3025 RMK A01 T00211017  RH  076%=      5-min Rain = 0
KTAS 151444Z 33009KT 02/M02 A3025 RMK A01 T00201018  RH  076%=      5-min Rain = 0
KTAS 151445Z 33008KT 02/M02 A3025 RMK A01 T00211016  RH  076%=      5-min Rain = 0
KTAS 151446Z 33010KT 02/M02 A3025 RMK A01 T00221016  RH  076%=      5-min Rain = 0
KTAS 151447Z 33008KT 02/M02 A3025 RMK A01 T00221018  RH  075%=      5-min Rain = 0
KTAS 151448Z 33009KT 02/M02 A3025 RMK A01 T00231016  RH  076%=      5-min Rain = 0
KTAS 151449Z 33010KT 02/M02 A3025 RMK A01 T00231017  RH  075%=      5-min Rain = 0
KTAS 151450Z 33010KT 02/M02 A3025 RMK A01 T00231016  RH  075%=      5-min Rain = 0
KTAS 151451Z 34009KT 02/M02 A3025 RMK A01 T00231018  RH  074%=      5-min Rain = 0
KTAS 151452Z 33008KT 02/M02 A3025 RMK A01 T00241016  RH  075%=      5-min Rain = 0
KTAS 151453Z 34008KT 03/M02 A3025 RMK A01 T00251015  RH  075%=      5-min Rain = 0
KTAS 151454Z 34008KT 03/M01 A3026 RMK A01 T00261014  RH  075%=      5-min Rain = 0
KTAS 151455Z 34009KT 03/M02 A3026 RMK A01 T00261016  RH  074%=      5-min Rain = 0
KTAS 151456Z 33009KT 03/M02 A3026 RMK A01 T00251017  RH  074%=      5-min Rain = 0
KTAS 151457Z 34010KT 03/M02 A3026 RMK A01 T00261016  RH  074%=      5-min Rain = 0
KTAS 151458Z 34010KT 03/M02 A3026 RMK A01 T00261016  RH  074%=      5-min Rain = 0
KTAS 151459Z 33008KT 03/M02 A3026 RMK A01 T00261016  RH  074%=      5-min Rain = 0
KTAS 151500Z 33010KT 03/M01 A3026 RMK A01 T00271014  RH  074%=      5-min Rain = 0
KTAS 151501Z 34011KT 03/M02 A3026 RMK A01 T00271016  RH  073%=      5-min Rain = 0
KTAS 151502Z 34010KT 03/M02 A3026 RMK A01 T00271015  RH  074%=      5-min Rain = 0
KTAS 151503Z 33010KT 03/M01 A3026 RMK A01 T00281014  RH  074%=      5-min Rain = 0
KTAS 151504Z 33011KT 03/M02 A3026 RMK A01 T00281016  RH  073%=      5-min Rain = 0
KTAS 151505Z 33011KT 03/M02 A3026 RMK A01 T00281016  RH  073%=      5-min Rain = 0
KTAS 151506Z 34011KT 03/M02 A3026 RMK A01 T00281015  RH  073%=      5-min Rain = 0
KTAS 151507Z 34011KT 03/M01 A3026 RMK A01 T00301014  RH  073%=      5-min Rain = 0
KTAS 151508Z 34010KT 03/M01 A3026 RMK A01 T00311014  RH  073%=      5-min Rain = 0
KTAS 151509Z 34010KT 03/M02 A3026 RMK A01 T00311016  RH  072%=      5-min Rain = 0
KTAS 151510Z 34008KT 03/M01 A3026 RMK A01 T00321013  RH  072%=      5-min Rain = 0
KTAS 151511Z 34009KT 03/M01 A3026 RMK A01 T00331012  RH  072%=      5-min Rain = 0
KTAS 151512Z 34010KT 03/M01 A3026 RMK A01 T00341012  RH  072%=      5-min Rain = 0
KTAS 151513Z 34010KT 04/M01 A3026 RMK A01 T00351014  RH  071%=      5-min Rain = 0
KTAS 151514Z 34012KT 04/M02 A3026 RMK A01 T00351015  RH  070%=      5-min Rain = 0
KTAS 151515Z 34012KT 03/M02 A3026 RMK A01 T00341017  RH  069%=      5-min Rain = 0
KTAS 151516Z 34012KT 04/M02 A3026 RMK A01 T00351017  RH  069%=      5-min Rain = 0
KTAS 151517Z 34010KT 04/M02 A3026 RMK A01 T00351016  RH  069%=      5-min Rain = 0
KTAS 151518Z 34010KT 04/M02 A3026 RMK A01 T00371015  RH  069%=      5-min Rain = 0
KTAS 151519Z 35011KT 04/M02 A3026 RMK A01 T00371016  RH  068%=      5-min Rain = 0
KTAS 151520Z 34014KT 04/M02 A3026 RMK A01 T00371017  RH  068%=      5-min Rain = 0
KTAS 151521Z 35012KT 04/M02 A3026 RMK A01 T00361019  RH  067%=      5-min Rain = 0
KTAS 151522Z 34012KT 04/M02 A3026 RMK A01 T00361019  RH  067%=      5-min Rain = 0
KTAS 151523Z 34011KT 04/M02 A3026 RMK A01 T00371017  RH  068%=      5-min Rain = 0
KTAS 151524Z 34013KT 04/M02 A3026 RMK A01 T00381017  RH  067%=      5-min Rain = 0
KTAS 151525Z 35011KT 04/M02 A3027 RMK A01 T00381018  RH  067%=      5-min Rain = 0
KTAS 151526Z 34010KT 04/M01 A3027 RMK A01 T00401014  RH  068%=      5-min Rain = 0
KTAS 151527Z 34011KT 04/M02 A3027 RMK A01 T00411015  RH  067%=      5-min Rain = 0
KTAS 151528Z 34010KT 04/M01 A3027 RMK A01 T00421014  RH  067%=      5-min Rain = 0
KTAS 151529Z 34009KT 04/M01 A3027 RMK A01 T00431013  RH  067%=      5-min Rain = 0
KTAS 151530Z 34011KT 04/M02 A3027 RMK A01 T00441015  RH  066%=      5-min Rain = 0
KTAS 151531Z 34011KT 04/M02 A3027 RMK A01 T00441015  RH  066%=      5-min Rain = 0
KTAS 151532Z 34010KT 04/M02 A3027 RMK A01 T00431015  RH  066%=      5-min Rain = 0
KTAS 151533Z 34010KT 04/M01 A3027 RMK A01 T00441014  RH  066%=      5-min Rain = 0
KTAS 151534Z 35010KT 05/M02 A3026 RMK A01 T00451015  RH  065%=      5-min Rain = 0
KTAS 151535Z 35010KT 05/M01 A3027 RMK A01 T00461014  RH  065%=      5-min Rain = 0
KTAS 151536Z 34011KT 05/M01 A3027 RMK A01 T00471013  RH  065%=      5-min Rain = 0
KTAS 151537Z 34011KT 05/M02 A3027 RMK A01 T00471015  RH  064%=      5-min Rain = 0
KTAS 151538Z 35012KT 05/M02 A3027 RMK A01 T00471015  RH  064%=      5-min Rain = 0
KTAS 151539Z 34012KT 05/M02 A3027 RMK A01 T00461016  RH  064%=      5-min Rain = 0
KTAS 151540Z 35012KT 05/M02 A3027 RMK A01 T00461018  RH  063%=      5-min Rain = 0
KTAS 151541Z 35012KT 05/M02 A3027 RMK A01 T00471015  RH  064%=      5-min Rain = 0
KTAS 151542Z 35012KT 05/M02 A3027 RMK A01 T00471017  RH  063%=      5-min Rain = 0
KTAS 151543Z 35012KT 05/M02 A3027 RMK A01 T00461018  RH  063%=      5-min Rain = 0
KTAS 151544Z 35010KT 05/M02 A3027 RMK A01 T00471016  RH  064%=      5-min Rain = 0
KTAS 151545Z 34012KT 05/M01 A3027 RMK A01 T00501013  RH  064%=      5-min Rain = 0
KTAS 151546Z 35013KT 05/M02 A3027 RMK A01 T00511016  RH  062%=      5-min Rain = 0
KTAS 151547Z 35013KT 05/M02 A3027 RMK A01 T00491019  RH  061%=      5-min Rain = 0
KTAS 151548Z 35012KT 05/M02 A3027 RMK A01 T00491016  RH  063%=      5-min Rain = 0
KTAS 151549Z 35012KT 05/M02 A3027 RMK A01 T00501018  RH  062%=      5-min Rain = 0
KTAS 151550Z 35012KT 05/M02 A3027 RMK A01 T00491018  RH  062%=      5-min Rain = 0
KTAS 151551Z 35010KT 05/M02 A3027 RMK A01 T00491015  RH  063%=      5-min Rain = 0
KTAS 151552Z 35012KT 05/M02 A3027 RMK A01 T00511017  RH  062%=      5-min Rain = 0
KTAS 151553Z 35011KT 05/M02 A3027 RMK A01 T00501017  RH  062%=      5-min Rain = 0
KTAS 151554Z 35010KT 05/M01 A3027 RMK A01 T00531011  RH  063%=      5-min Rain = 0
KTAS 151555Z 35012KT 06/M02 A3027 RMK A01 T00551015  RH  061%=      5-min Rain = 0
KTAS 151556Z 34011KT 05/M02 A3027 RMK A01 T00531016  RH  061%=      5-min Rain = 0
KTAS 151557Z 35012KT 05/M02 A3027 RMK A01 T00521017  RH  061%=      5-min Rain = 0
KTAS 151558Z 35010KT 05/M02 A3027 RMK A01 T00521015  RH  062%=      5-min Rain = 0
KTAS 151559Z 36011KT 05/M01 A3027 RMK A01 T00541014  RH  061%=      5-min Rain = 0
KTAS 151600Z 35011KT 05/M02 A3027 RMK A01 T00531016  RH  061%=      5-min Rain = 0
KTAS 151601Z 36011KT 05/M01 A3027 RMK A01 T00541014  RH  062%=      5-min Rain = 0
KTAS 151602Z 35010KT 05/M01 A3027 RMK A01 T00541014  RH  062%=      5-min Rain = 0
KTAS 151603Z 35010KT 06/M01 A3027 RMK A01 T00571010  RH  062%=      5-min Rain = 0
KTAS 151604Z 35010KT 06/M01 A3027 RMK A01 T00571012  RH  061%=      5-min Rain = 0
KTAS 151605Z 34011KT 06/M01 A3027 RMK A01 T00581013  RH  060%=      5-min Rain = 0
KTAS 151606Z 36010KT 06/M02 A3027 RMK A01 T00561015  RH  060%=      5-min Rain = 0
KTAS 151607Z 34011KT 06/M01 A3027 RMK A01 T00571012  RH  061%=      5-min Rain = 0
KTAS 151608Z 34012KT 06/M02 A3027 RMK A01 T00561015  RH  060%=      5-min Rain = 0
KTAS 151609Z 35011KT 06/M02 A3027 RMK A01 T00551016  RH  060%=      5-min Rain = 0
KTAS 151610Z 35011KT 06/M01 A3027 RMK A01 T00551013  RH  061%=      5-min Rain = 0
KTAS 151611Z 35011KT 05/M02 A3027 RMK A01 T00541015  RH  061%=      5-min Rain = 0
KTAS 151612Z 00010KT 06/M01 A3027 RMK A01 T00551012  RH  062%=      5-min Rain = 0
KTAS 151613Z 01011KT 06/M02 A3027 RMK A01 T00561018  RH  059%=      5-min Rain = 0
KTAS 151614Z 01010KT 06/M02 A3027 RMK A01 T00561015  RH  060%=      5-min Rain = 0
KTAS 151615Z 36009KT 06/M01 A3027 RMK A01 T00581010  RH  062%=      5-min Rain = 0
KTAS 151616Z 36010KT 06/M01 A3027 RMK A01 T00611011  RH  060%=      5-min Rain = 0
KTAS 151617Z 35012KT 06/M02 A3027 RMK A01 T00591015  RH  059%=      5-min Rain = 0
KTAS 151618Z 35010KT 06/M01 A3027 RMK A01 T00591014  RH  059%=      5-min Rain = 0
KTAS 151619Z 35011KT 06/M01 A3027 RMK A01 T00591012  RH  060%=      5-min Rain = 0
KTAS 151620Z 00010KT 06/M01 A3027 RMK A01 T00601013  RH  059%=      5-min Rain = 0
KTAS 151621Z 36011KT 06/M02 A3027 RMK A01 T00611015  RH  059%=      5-min Rain = 0
KTAS 151622Z 35010KT 06/M02 A3028 RMK A01 T00611015  RH  059%=      5-min Rain = 0
KTAS 151623Z 35011KT 06/M01 A3028 RMK A01 T00611014  RH  059%=      5-min Rain = 0
KTAS 151624Z 34011KT 06/M01 A3028 RMK A01 T00611014  RH  058%=      5-min Rain = 0
KTAS 151625Z 35010KT 06/M01 A3028 RMK A01 T00621014  RH  058%=      5-min Rain = 0
KTAS 151626Z 35010KT 06/M01 A3028 RMK A01 T00621012  RH  059%=      5-min Rain = 0
KTAS 151627Z 35010KT 06/M01 A3028 RMK A01 T00631012  RH  058%=      5-min Rain = 0
KTAS 151628Z 35009KT 06/M01 A3028 RMK A01 T00641010  RH  059%=      5-min Rain = 0
KTAS 151629Z 35010KT 06/M01 A3028 RMK A01 T00641011  RH  059%=      5-min Rain = 0
KTAS 151630Z 34010KT 06/M01 A3028 RMK A01 T00631012  RH  059%=      5-min Rain = 0
KTAS 151631Z 34010KT 06/M01 A3028 RMK A01 T00631013  RH  058%=      5-min Rain = 0
KTAS 151632Z 35010KT 06/M01 A3028 RMK A01 T00631009  RH  060%=      5-min Rain = 0
KTAS 151633Z 34009KT 07/M01 A3028 RMK A01 T00651009  RH  059%=      5-min Rain = 0
KTAS 151634Z 35009KT 07/M01 A3028 RMK A01 T00651011  RH  058%=      5-min Rain = 0
KTAS 151635Z 35009KT 07/M01 A3028 RMK A01 T00661007  RH  060%=      5-min Rain = 0
KTAS 151636Z 34009KT 07/M01 A3028 RMK A01 T00671008  RH  059%=      5-min Rain = 0
KTAS 151637Z 34010KT 07/M01 A3028 RMK A01 T00691006  RH  059%=      5-min Rain = 0
KTAS 151638Z 35009KT 07/M01 A3028 RMK A01 T00701005  RH  059%=      5-min Rain = 0
KTAS 151639Z 35008KT 07/M01 A3028 RMK A01 T00701007  RH  058%=      5-min Rain = 0
KTAS 151640Z 35009KT 07/M01 A3028 RMK A01 T00701005  RH  059%=      5-min Rain = 0
KTAS 151641Z 35008KT 07/M01 A3028 RMK A01 T00691010  RH  057%=      5-min Rain = 0
KTAS 151642Z 35007KT 07/M01 A3028 RMK A01 T00711006  RH  058%=      5-min Rain = 0
KTAS 151643Z 36008KT 07/M01 A3028 RMK A01 T00731009  RH  056%=      5-min Rain = 0
KTAS 151644Z 01008KT 07/M01 A3028 RMK A01 T00721008  RH  057%=      5-min Rain = 0
KTAS 151645Z 36008KT 07/M01 A3028 RMK A01 T00731009  RH  056%=      5-min Rain = 0
KTAS 151646Z 36010KT 07/M01 A3028 RMK A01 T00721008  RH  057%=      5-min Rain = 0
KTAS 151647Z 36009KT 07/M01 A3028 RMK A01 T00701011  RH  056%=      5-min Rain = 0
KTAS 151648Z 35007KT 07/M01 A3028 RMK A01 T00701010  RH  057%=      5-min Rain = 0
KTAS 151649Z 35006KT 07/M01 A3028 RMK A01 T00721006  RH  058%=      5-min Rain = 0
KTAS 151650Z 35009KT 07/M01 A3028 RMK A01 T00741005  RH  057%=      5-min Rain = 0
KTAS 151651Z 35009KT 08/M01 A3028 RMK A01 T00771005  RH  056%=      5-min Rain = 0
KTAS 151652Z 35008KT 08/M01 A3028 RMK A01 T00761008  RH  055%=      5-min Rain = 0
KTAS 151653Z 36010KT 08/M01 A3028 RMK A01 T00761009  RH  055%=      5-min Rain = 0
KTAS 151654Z 00008KT 08/M01 A3028 RMK A01 T00761010  RH  054%=      5-min Rain = 0
KTAS 151655Z 02008KT 08/M01 A3028 RMK A01 T00761007  RH  056%=      5-min Rain = 0
KTAS 151656Z 01006KT 08/M01 A3028 RMK A01 T00771007  RH  055%=      5-min Rain = 0
KTAS 151657Z 01009KT 08/M01 A3028 RMK A01 T00761011  RH  054%=      5-min Rain = 0
KTAS 151658Z 36006KT 08/M01 A3028 RMK A01 T00751011  RH  054%=      5-min Rain = 0
KTAS 151659Z 35009KT 08/M01 A3028 RMK A01 T00771010  RH  054%=      5-min Rain = 0
KTAS 151700Z 01009KT 08/M01 A3028 RMK A01 T00781010  RH  054%=      5-min Rain = 0
KTAS 151701Z 01007KT 08/M01 A3028 RMK A01 T00791008  RH  054%=      5-min Rain = 0
KTAS 151702Z 01006KT 08/M00 A3028 RMK A01 T00821003  RH  055%=      5-min Rain = 0
KTAS 151703Z 02008KT 08/M01 A3028 RMK A01 T00821007  RH  053%=      5-min Rain = 0
KTAS 151704Z 01006KT 08/M02 A3028 RMK A01 T00781015  RH  052%=      5-min Rain = 0
KTAS 151705Z 03007KT 08/M01 A3028 RMK A01 T00771013  RH  053%=      5-min Rain = 0
KTAS 151706Z 03006KT 08/M02 A3028 RMK A01 T00801016  RH  051%=      5-min Rain = 0
KTAS 151707Z 03007KT 08/M02 A3028 RMK A01 T00811015  RH  051%=      5-min Rain = 0
KTAS 151708Z 01004KT 08/M01 A3028 RMK A01 T00811014  RH  051%=      5-min Rain = 0
KTAS 151709Z 03006KT 08/M01 A3028 RMK A01 T00811011  RH  052%=      5-min Rain = 0
KTAS 151710Z 02007KT 08/M01 A3028 RMK A01 T00831014  RH  050%=      5-min Rain = 0
KTAS 151711Z 02006KT 08/M02 A3028 RMK A01 T00821015  RH  050%=      5-min Rain = 0
KTAS 151712Z 03005KT 08/M02 A3028 RMK A01 T00831017  RH  050%=      5-min Rain = 0
KTAS 151713Z 03007KT 08/M02 A3028 RMK A01 T00821017  RH  050%=      5-min Rain = 0
KTAS 151714Z 04008KT 08/M02 A3028 RMK A01 T00821015  RH  050%=      5-min Rain = 0
KTAS 151715Z 02004KT 08/M02 A3028 RMK A01 T00801015  RH  051%=      5-min Rain = 0
KTAS 151716Z 02005KT 08/M01 A3028 RMK A01 T00831011  RH  052%=      5-min Rain = 0
KTAS 151717Z 36007KT 08/M01 A3028 RMK A01 T00841014  RH  050%=      5-min Rain = 0
KTAS 151718Z 36005KT 08/M02 A3028 RMK A01 T00811017  RH  050%=      5-min Rain = 0
KTAS 151719Z 35007KT 08/M01 A3028 RMK A01 T00831012  RH  051%=      5-min Rain = 0
KTAS 151720Z 36006KT 08/M02 A3028 RMK A01 T00821018  RH  049%=      5-min Rain = 0
KTAS 151721Z 02007KT 08/M02 A3028 RMK A01 T00821016  RH  050%=      5-min Rain = 0
KTAS 151722Z 01006KT 08/M02 A3028 RMK A01 T00831017  RH  049%=      5-min Rain = 0
KTAS 151723Z 00005KT 08/M02 A3028 RMK A01 T00821018  RH  049%=      5-min Rain = 0
KTAS 151724Z 34004KT 08/M02 A3028 RMK A01 T00821016  RH  050%=      5-min Rain = 0
KTAS 151725Z 01005KT 09/M01 A3028 RMK A01 T00851011  RH  051%=      5-min Rain = 0
KTAS 151726Z 02007KT 09/M01 A3028 RMK A01 T00871012  RH  050%=      5-min Rain = 0
KTAS 151727Z 01006KT 09/M01 A3028 RMK A01 T00861014  RH  049%=      5-min Rain = 0
KTAS 151728Z 02006KT 09/M01 A3027 RMK A01 T00851014  RH  050%=      5-min Rain = 0
KTAS 151729Z 03005KT 09/M01 A3027 RMK A01 T00851014  RH  050%=      5-min Rain = 0
KTAS 151730Z 04007KT 09/M02 A3027 RMK A01 T00871016  RH  048%=      5-min Rain = 0
KTAS 151731Z 05006KT 09/M02 A3027 RMK A01 T00851017  RH  049%=      5-min Rain = 0
KTAS 151732Z 06006KT 09/M02 A3027 RMK A01 T00851016  RH  049%=      5-min Rain = 0
KTAS 151733Z 06007KT 09/M02 A3027 RMK A01 T00881016  RH  048%=      5-min Rain = 0
KTAS 151734Z 05005KT 09/M02 A3027 RMK A01 T00871020  RH  047%=      5-min Rain = 0
KTAS 151735Z 05005KT 09/M02 A3027 RMK A01 T00871015  RH  049%=      5-min Rain = 0
KTAS 151736Z 06006KT 09/M02 A3027 RMK A01 T00881015  RH  048%=      5-min Rain = 0
KTAS 151737Z 05005KT 09/M02 A3027 RMK A01 T00871016  RH  048%=      5-min Rain = 0
KTAS 151738Z 04004KT 09/M02 A3027 RMK A01 T00851018  RH  049%=      5-min Rain = 0
KTAS 151739Z 02006KT 09/M02 A3027 RMK A01 T00861015  RH  049%=      5-min Rain = 0
KTAS 151740Z 03005KT 09/M01 A3027 RMK A01 T00881013  RH  049%=      5-min Rain = 0
KTAS 151741Z 04004KT 09/M01 A3027 RMK A01 T00901011  RH  049%=      5-min Rain = 0
KTAS 151742Z 02004KT 09/M01 A3027 RMK A01 T00911014  RH  048%=      5-min Rain = 0
KTAS 151743Z 03004KT 09/M01 A3027 RMK A01 T00911014  RH  048%=      5-min Rain = 0
KTAS 151744Z 04005KT 09/M01 A3027 RMK A01 T00921014  RH  048%=      5-min Rain = 0
KTAS 151745Z 05006KT 09/M02 A3027 RMK A01 T00921015  RH  047%=      5-min Rain = 0
KTAS 151746Z 05004KT 09/M01 A3027 RMK A01 T00931014  RH  047%=      5-min Rain = 0
KTAS 151747Z 04005KT 09/M01 A3027 RMK A01 T00941014  RH  047%=      5-min Rain = 0
KTAS 151748Z 04006KT 09/M02 A3027 RMK A01 T00901021  RH  046%=      5-min Rain = 0
KTAS 151749Z 07004KT 09/M02 A3027 RMK A01 T00861022  RH  047%=      5-min Rain = 0
KTAS 151750Z 05006KT 09/M02 A3027 RMK A01 T00861018  RH  048%=      5-min Rain = 0
KTAS 151751Z 05004KT 09/M02 A3027 RMK A01 T00891019  RH  047%=      5-min Rain = 0
KTAS 151752Z 04002KT 09/M02 A3027 RMK A01 T00881017  RH  048%=      5-min Rain = 0
KTAS 151753Z 02005KT 09/M02 A3027 RMK A01 T00901017  RH  047%=      5-min Rain = 0
KTAS 151754Z 05002KT 09/M02 A3027 RMK A01 T00891023  RH  045%=      5-min Rain = 0
KTAS 151755Z 03004KT 09/M02 A3027 RMK A01 T00891018  RH  047%=      5-min Rain = 0
KTAS 151756Z 01005KT 09/M01 A3027 RMK A01 T00911014  RH  048%=      5-min Rain = 0
KTAS 151757Z 35005KT 10/M01 A3027 RMK A01 T00961009  RH  048%=      5-min Rain = 0
KTAS 151758Z 36005KT 10/M02 A3027 RMK A01 T00971015  RH  045%=      5-min Rain = 0
KTAS 151759Z 02006KT 10/M02 A3027 RMK A01 T00951018  RH  045%=      5-min Rain = 0
KTAS 151800Z 01004KT 09/M02 A3027 RMK A01 T00941017  RH  046%=      5-min Rain = 0
KTAS 151801Z 36006KT 10/M02 A3027 RMK A01 T00961015  RH  046%=      5-min Rain = 0
KTAS 151802Z 35006KT 10/M02 A3027 RMK A01 T00961019  RH  045%=      5-min Rain = 0
KTAS 151803Z 01005KT 09/M02 A3027 RMK A01 T00941017  RH  046%=      5-min Rain = 0
KTAS 151804Z 01006KT 09/M02 A3027 RMK A01 T00941015  RH  046%=      5-min Rain = 0
KTAS 151805Z 02004KT 09/M02 A3027 RMK A01 T00931019  RH  045%=      5-min Rain = 0
KTAS 151806Z 01005KT 09/M02 A3027 RMK A01 T00931018  RH  046%=      5-min Rain = 0
KTAS 151807Z 02004KT 09/M02 A3027 RMK A01 T00931016  RH  046%=      5-min Rain = 0
KTAS 151808Z 01003KT 09/M02 A3027 RMK A01 T00931016  RH  047%=      5-min Rain = 0
KTAS 151809Z 34006KT 09/M01 A3027 RMK A01 T00931013  RH  047%=      5-min Rain = 0
KTAS 151810Z 34006KT 09/M01 A3027 RMK A01 T00941012  RH  047%=      5-min Rain = 0
KTAS 151811Z 33003KT 09/M01 A3026 RMK A01 T00921013  RH  048%=      5-min Rain = 0
KTAS 151812Z 35004KT 09/M01 A3026 RMK A01 T00921011  RH  049%=      5-min Rain = 0
KTAS 151813Z 01005KT 10/M00 A3026 RMK A01 T00981004  RH  049%=      5-min Rain = 0
KTAS 151814Z 00007KT 10/M01 A3026 RMK A01 T00991008  RH  047%=      5-min Rain = 0
KTAS 151815Z 35007KT 10/M01 A3026 RMK A01 T01011011  RH  046%=      5-min Rain = 0
KTAS 151816Z 36006KT 10/M02 A3026 RMK A01 T00991021  RH  043%=      5-min Rain = 0
KTAS 151817Z 34006KT 10/M02 A3026 RMK A01 T00971017  RH  045%=      5-min Rain = 0
KTAS 151818Z 33007KT 10/M02 A3026 RMK A01 T00981015  RH  045%=      5-min Rain = 0
KTAS 151819Z 35008KT 10/M02 A3026 RMK A01 T00961021  RH  044%=      5-min Rain = 0
KTAS 151820Z 35007KT 10/M02 A3026 RMK A01 T00971018  RH  045%=      5-min Rain = 0
KTAS 151821Z 33005KT 09/M02 A3026 RMK A01 T00941022  RH  044%=      5-min Rain = 0
KTAS 151822Z 35006KT 09/M02 A3026 RMK A01 T00921020  RH  045%=      5-min Rain = 0
KTAS 151823Z 33006KT 09/M01 A3026 RMK A01 T00921014  RH  047%=      5-min Rain = 0
KTAS 151824Z 34008KT 09/M01 A3026 RMK A01 T00941013  RH  047%=      5-min Rain = 0
KTAS 151825Z 35006KT 10/M01 A3026 RMK A01 T00971012  RH  047%=      5-min Rain = 0
KTAS 151826Z 35005KT 10/M02 A3026 RMK A01 T00951018  RH  045%=      5-min Rain = 0
KTAS 151827Z 33004KT 10/M01 A3026 RMK A01 T00961013  RH  047%=      5-min Rain = 0
KTAS 151828Z 35007KT 10/M01 A3026 RMK A01 T01001014  RH  045%=      5-min Rain = 0
KTAS 151829Z 35006KT 10/M03 A3026 RMK A01 T00991025  RH  042%=      5-min Rain = 0
KTAS 151830Z 34003KT 09/M03 A3026 RMK A01 T00941034  RH  040%=      5-min Rain = 0
KTAS 151831Z 32009KT 09/M03 A3026 RMK A01 T00931031  RH  041%=      5-min Rain = 0
KTAS 151832Z 34007KT 10/M03 A3026 RMK A01 T00961026  RH  042%=      5-min Rain = 0
KTAS 151833Z 35008KT 10/M02 A3025 RMK A01 T00991023  RH  042%=      5-min Rain = 0
KTAS 151834Z 00008KT 10/M02 A3025 RMK A01 T01021022  RH  042%=      5-min Rain = 0
KTAS 151835Z 35006KT 10/M02 A3025 RMK A01 T01041020  RH  042%=      5-min Rain = 0
KTAS 151836Z 35006KT 10/M03 A3025 RMK A01 T01031029  RH  040%=      5-min Rain = 0
KTAS 151837Z 35006KT 10/M03 A3025 RMK A01 T01001030  RH  040%=      5-min Rain = 0
KTAS 151838Z 35004KT 10/M03 A3025 RMK A01 T00971032  RH  040%=      5-min Rain = 0
KTAS 151839Z 35004KT 10/M03 A3025 RMK A01 T00961030  RH  041%=      5-min Rain = 0
KTAS 151840Z 33007KT 10/M03 A3025 RMK A01 T00971028  RH  042%=      5-min Rain = 0
KTAS 151841Z 33006KT 10/M03 A3025 RMK A01 T00971027  RH  042%=      5-min Rain = 0
KTAS 151842Z 33005KT 10/M03 A3025 RMK A01 T00971025  RH  042%=      5-min Rain = 0
KTAS 151843Z 33007KT 10/M02 A3025 RMK A01 T00991020  RH  043%=      5-min Rain = 0
KTAS 151844Z 34008KT 10/M03 A3025 RMK A01 T01021027  RH  040%=      5-min Rain = 0
KTAS 151845Z 35006KT 10/M03 A3025 RMK A01 T01011029  RH  040%=      5-min Rain = 0
KTAS 151846Z 01006KT 10/M03 A3025 RMK A01 T00981033  RH  039%=      5-min Rain = 0
KTAS 151847Z 33005KT 10/M03 A3025 RMK A01 T00971031  RH  040%=      5-min Rain = 0
KTAS 151848Z 31005KT 10/M03 A3025 RMK A01 T00951029  RH  042%=      5-min Rain = 0
KTAS 151849Z 32006KT 10/M02 A3025 RMK A01 T00951023  RH  044%=      5-min Rain = 0
KTAS 151850Z 34007KT 10/M02 A3025 RMK A01 T00971020  RH  044%=      5-min Rain = 0
KTAS 151851Z 35008KT 10/M03 A3025 RMK A01 T01001026  RH  041%=      5-min Rain = 0
KTAS 151852Z 34006KT 10/M03 A3025 RMK A01 T00991030  RH  040%=      5-min Rain = 0
KTAS 151853Z 34005KT 10/M02 A3025 RMK A01 T01001019  RH  043%=      5-min Rain = 0
KTAS 151854Z 00009KT 10/M02 A3024 RMK A01 T01041024  RH  041%=      5-min Rain = 0
KTAS 151855Z 00007KT 10/M04 A3024 RMK A01 T01011036  RH  038%=      5-min Rain = 0
KTAS 151856Z 01007KT 10/M03 A3024 RMK A01 T01001033  RH  039%=      5-min Rain = 0
KTAS 151857Z 35005KT 10/M04 A3024 RMK A01 T01011036  RH  038%=      5-min Rain = 0
KTAS 151858Z 36006KT 10/M03 A3024 RMK A01 T01031031  RH  039%=      5-min Rain = 0
KTAS 151859Z 33004KT 10/M03 A3024 RMK A01 T01031027  RH  040%=      5-min Rain = 0
KTAS 151900Z 33007KT 10/M02 A3024 RMK A01 T01031024  RH  041%=      5-min Rain = 0
KTAS 151901Z 35006KT 10/M03 A3024 RMK A01 T00981031  RH  040%=      5-min Rain = 0
KTAS 151902Z 34006KT 10/M03 A3024 RMK A01 T00971027  RH  042%=      5-min Rain = 0
KTAS 151903Z 35008KT 10/M03 A3024 RMK A01 T00981026  RH  042%=      5-min Rain = 0
KTAS 151904Z 35005KT 10/M03 A3024 RMK A01 T00971026  RH  042%=      5-min Rain = 0
KTAS 151905Z 35004KT 10/M02 A3024 RMK A01 T00981020  RH  044%=      5-min Rain = 0
KTAS 151906Z 35006KT 10/M02 A3024 RMK A01 T01011020  RH  043%=      5-min Rain = 0
KTAS 151907Z 33008KT 10/M02 A3024 RMK A01 T01031021  RH  042%=      5-min Rain = 0
KTAS 151908Z 33007KT 10/M02 A3024 RMK A01 T01031023  RH  041%=      5-min Rain = 0
KTAS 151909Z 32009KT 10/M02 A3024 RMK A01 T01001023  RH  042%=      5-min Rain = 0
KTAS 151910Z 33009KT 10/M02 A3024 RMK A01 T00991019  RH  043%=      5-min Rain = 0
KTAS 151911Z 33008KT 10/M02 A3023 RMK A01 T01001019  RH  043%=      5-min Rain = 0
KTAS 151912Z 35009KT 11/M01 A3023 RMK A01 T01061014  RH  043%=      5-min Rain = 0
KTAS 151913Z 34006KT 11/M02 A3023 RMK A01 T01091022  RH  040%=      5-min Rain = 0
KTAS 151914Z 33007KT 11/M02 A3023 RMK A01 T01071023  RH  040%=      5-min Rain = 0
KTAS 151915Z 34008KT 11/M02 A3023 RMK A01 T01061022  RH  041%=      5-min Rain = 0
KTAS 151916Z 35006KT 10/M02 A3023 RMK A01 T01041021  RH  041%=      5-min Rain = 0
KTAS 151917Z 33007KT 11/M02 A3023 RMK A01 T01051019  RH  042%=      5-min Rain = 0
KTAS 151918Z 32007KT 10/M02 A3023 RMK A01 T01041022  RH  041%=      5-min Rain = 0
KTAS 151919Z 35008KT 10/M02 A3023 RMK A01 T01021022  RH  042%=      5-min Rain = 0
KTAS 151920Z 36008KT 10/M02 A3023 RMK A01 T01021019  RH  043%=      5-min Rain = 0
KTAS 151921Z 35008KT 11/M01 A3023 RMK A01 T01061013  RH  043%=      5-min Rain = 0
KTAS 151922Z 01007KT 11/M01 A3023 RMK A01 T01061013  RH  043%=      5-min Rain = 0
KTAS 151923Z 03008KT 11/M02 A3023 RMK A01 T01081019  RH  041%=      5-min Rain = 0
KTAS 151924Z 04007KT 10/M02 A3023 RMK A01 T01031023  RH  041%=      5-min Rain = 0
KTAS 151925Z 03008KT 11/M02 A3022 RMK A01 T01061016  RH  043%=      5-min Rain = 0
KTAS 151926Z 02006KT 11/M02 A3022 RMK A01 T01051020  RH  042%=      5-min Rain = 0
KTAS 151927Z 35006KT 10/M02 A3022 RMK A01 T01041016  RH  043%=      5-min Rain = 0
KTAS 151928Z 32005KT 11/M02 A3023 RMK A01 T01051017  RH  042%=      5-min Rain = 0
KTAS 151929Z 01003KT 10/M02 A3022 RMK A01 T01011023  RH  042%=      5-min Rain = 0
KTAS 151930Z 32007KT 10/M02 A3022 RMK A01 T00991019  RH  044%=      5-min Rain = 0
KTAS 151931Z 34003KT 10/M02 A3022 RMK A01 T00991018  RH  044%=      5-min Rain = 0
KTAS 151932Z 35004KT 10/M02 A3022 RMK A01 T01011015  RH  044%=      5-min Rain = 0
KTAS 151933Z 01009KT 10/M02 A3022 RMK A01 T01011020  RH  043%=      5-min Rain = 0
KTAS 151934Z 03007KT 10/M02 A3022 RMK A01 T01011022  RH  042%=      5-min Rain = 0
KTAS 151935Z 01008KT 10/M02 A3022 RMK A01 T01011019  RH  043%=      5-min Rain = 0
KTAS 151936Z 00008KT 10/M02 A3022 RMK A01 T01041019  RH  042%=      5-min Rain = 0
KTAS 151937Z 00004KT 10/M02 A3022 RMK A01 T01041020  RH  042%=      5-min Rain = 0
KTAS 151938Z 01007KT 10/M02 A3022 RMK A01 T01041020  RH  042%=      5-min Rain = 0
KTAS 151939Z 36006KT 10/M02 A3022 RMK A01 T01041024  RH  041%=      5-min Rain = 0
KTAS 151940Z 02006KT 10/M02 A3022 RMK A01 T01031023  RH  041%=      5-min Rain = 0
KTAS 151941Z 35007KT 10/M02 A3022 RMK A01 T01041019  RH  042%=      5-min Rain = 0
KTAS 151942Z 34006KT 11/M02 A3022 RMK A01 T01061015  RH  043%=      5-min Rain = 0
KTAS 151943Z 32008KT 11/M02 A3022 RMK A01 T01081016  RH  042%=      5-min Rain = 0
KTAS 151944Z 31006KT 11/M02 A3022 RMK A01 T01061019  RH  042%=      5-min Rain = 0
KTAS 151945Z 03006KT 11/M01 A3022 RMK A01 T01061014  RH  043%=      5-min Rain = 0
KTAS 151946Z 02005KT 11/M01 A3022 RMK A01 T01091010  RH  044%=      5-min Rain = 0
KTAS 151947Z 02006KT 11/M01 A3021 RMK A01 T01111010  RH  043%=      5-min Rain = 0
KTAS 151948Z 04005KT 11/M02 A3021 RMK A01 T01101016  RH  041%=      5-min Rain = 0
KTAS 151949Z 02003KT 11/M02 A3021 RMK A01 T01081017  RH  042%=      5-min Rain = 0
KTAS 151950Z 02003KT 11/M02 A3021 RMK A01 T01051021  RH  041%=      5-min Rain = 0
KTAS 151951Z 02008KT 11/M02 A3021 RMK A01 T01051017  RH  043%=      5-min Rain = 0
KTAS 151952Z 03006KT 11/M02 A3021 RMK A01 T01061018  RH  042%=      5-min Rain = 0
KTAS 151953Z 00008KT 11/M02 A3021 RMK A01 T01071016  RH  042%=      5-min Rain = 0
KTAS 151954Z 00006KT 11/M02 A3021 RMK A01 T01071019  RH  041%=      5-min Rain = 0
KTAS 151955Z 02006KT 11/M02 A3021 RMK A01 T01051019  RH  042%=      5-min Rain = 0
KTAS 151956Z 35004KT 11/M02 A3021 RMK A01 T01061015  RH  043%=      5-min Rain = 0
KTAS 151957Z 34006KT 11/M01 A3021 RMK A01 T01081014  RH  042%=      5-min Rain = 0
KTAS 151958Z 01006KT 11/M02 A3021 RMK A01 T01091019  RH  041%=      5-min Rain = 0
KTAS 151959Z 02009KT 11/M02 A3021 RMK A01 T01081018  RH  041%=      5-min Rain = 0
KTAS 152000Z 01007KT 11/M02 A3021 RMK A01 T01081019  RH  041%=      5-min Rain = 0
KTAS 152001Z 01005KT 11/M02 A3021 RMK A01 T01061020  RH  041%=      5-min Rain = 0
KTAS 152002Z 01006KT 11/M01 A3021 RMK A01 T01081014  RH  043%=      5-min Rain = 0
KTAS 152003Z 00006KT 11/M02 A3021 RMK A01 T01101016  RH  042%=      5-min Rain = 0
KTAS 152004Z 03005KT 11/M02 A3021 RMK A01 T01101019  RH  041%=      5-min Rain = 0
KTAS 152005Z 01008KT 11/M01 A302 RMK A01 T01111014  RH  042%=      5-min Rain = 0
KTAS 152006Z 00005KT 11/M02 A302 RMK A01 T01091020  RH  040%=      5-min Rain = 0
KTAS 152007Z 35007KT 11/M02 A302 RMK A01 T01101015  RH  042%=      5-min Rain = 0
KTAS 152008Z 01007KT 11/M02 A302 RMK A01 T01111016  RH  041%=      5-min Rain = 0
KTAS 152009Z 35009KT 11/M01 A302 RMK A01 T01131014  RH  041%=      5-min Rain = 0
KTAS 152010Z 00009KT 11/M02 A302 RMK A01 T01131019  RH  040%=      5-min Rain = 0
KTAS 152011Z 01008KT 11/M02 A302 RMK A01 T01091018  RH  041%=      5-min Rain = 0
KTAS 152012Z 35006KT 11/M01 A302 RMK A01 T01111013  RH  042%=      5-min Rain = 0
KTAS 152013Z 33006KT 12/M01 A302 RMK A01 T01161011  RH  041%=      5-min Rain = 0
KTAS 152014Z 35005KT 12/M01 A302 RMK A01 T01171011  RH  041%=      5-min Rain = 0
KTAS 152015Z 00004KT 12/M02 A302 RMK A01 T01171016  RH  040%=      5-min Rain = 0
KTAS 152016Z 01002KT 11/M01 A302 RMK A01 T01141014  RH  041%=      5-min Rain = 0
KTAS 152017Z 33004KT 11/M02 A302 RMK A01 T01141017  RH  040%=      5-min Rain = 0
KTAS 152018Z 34006KT 11/M02 A302 RMK A01 T01111017  RH  041%=      5-min Rain = 0
KTAS 152019Z 35006KT 11/M02 A302 RMK A01 T01101015  RH  042%=      5-min Rain = 0
KTAS 152020Z 02005KT 11/M02 A302 RMK A01 T01111017  RH  041%=      5-min Rain = 0
KTAS 152021Z 33007KT 11/M01 A302 RMK A01 T01121014  RH  042%=      5-min Rain = 0
KTAS 152022Z 02008KT 11/M01 A3019 RMK A01 T01111014  RH  041%=      5-min Rain = 0
KTAS 152023Z 35007KT 11/M01 A3019 RMK A01 T01121014  RH  041%=      5-min Rain = 0
KTAS 152024Z 32004KT 11/M02 A3019 RMK A01 T01111019  RH  040%=      5-min Rain = 0
KTAS 152025Z 33004KT 11/M02 A3019 RMK A01 T01071020  RH  041%=      5-min Rain = 0
KTAS 152026Z 35004KT 11/M02 A3019 RMK A01 T01071017  RH  042%=      5-min Rain = 0
KTAS 152027Z 35008KT 11/M01 A3019 RMK A01 T01111011  RH  043%=      5-min Rain = 0
KTAS 152028Z 00008KT 11/M01 A3019 RMK A01 T01141014  RH  041%=      5-min Rain = 0
KTAS 152029Z 01005KT 11/M02 A3019 RMK A01 T01101019  RH  041%=      5-min Rain = 0
KTAS 152030Z 33004KT 11/M02 A3019 RMK A01 T01071020  RH  041%=      5-min Rain = 0
KTAS 152031Z 33004KT 11/M02 A3019 RMK A01 T01071019  RH  041%=      5-min Rain = 0
KTAS 152032Z 34006KT 11/M02 A3019 RMK A01 T01081017  RH  042%=      5-min Rain = 0
KTAS 152033Z 34002KT 11/M02 A3019 RMK A01 T01081015  RH  043%=      5-min Rain = 0
KTAS 152034Z 35004KT 11/M01 A3019 RMK A01 T01101013  RH  042%=      5-min Rain = 0
KTAS 152035Z 34006KT 11/M01 A3019 RMK A01 T01121013  RH  042%=      5-min Rain = 0
KTAS 152036Z 34006KT 11/M02 A3019 RMK A01 T01111016  RH  041%=      5-min Rain = 0
KTAS 152037Z 34003KT 11/M02 A3019 RMK A01 T01101016  RH  041%=      5-min Rain = 0
KTAS 152038Z 30004KT 11/M01 A3018 RMK A01 T01121013  RH  042%=      5-min Rain = 0
KTAS 152039Z 29006KT 11/M01 A3018 RMK A01 T01141013  RH  041%=      5-min Rain = 0
KTAS 152040Z 31006KT 12/M01 A3018 RMK A01 T01151011  RH  042%=      5-min Rain = 0
KTAS 152041Z 32004KT 12/M02 A3018 RMK A01 T01151016  RH  040%=      5-min Rain = 0
KTAS 152042Z 30004KT 12/M01 A3018 RMK A01 T01151013  RH  041%=      5-min Rain = 0
KTAS 152043Z 32003KT 12/M01 A3018 RMK A01 T01151014  RH  041%=      5-min Rain = 0
KTAS 152044Z 31008KT 12/M01 A3018 RMK A01 T01161011  RH  041%=      5-min Rain = 0
KTAS 152045Z 30006KT 12/M01 A3018 RMK A01 T01171013  RH  040%=      5-min Rain = 0
KTAS 152046Z 27003KT 12/M01 A3018 RMK A01 T01161013  RH  041%=      5-min Rain = 0
KTAS 152047Z 27004KT 11/M02 A3018 RMK A01 T01141016  RH  040%=      5-min Rain = 0
KTAS 152048Z 28003KT 11/M01 A3018 RMK A01 T01141013  RH  041%=      5-min Rain = 0
KTAS 152049Z 29003KT 11/M01 A3018 RMK A01 T01141014  RH  041%=      5-min Rain = 0
KTAS 152050Z 02006KT 12/M01 A3018 RMK A01 T01151011  RH  041%=      5-min Rain = 0
KTAS 152051Z 01005KT 12/M02 A3018 RMK A01 T01171015  RH  040%=      5-min Rain = 0
KTAS 152052Z 00006KT 12/M01 A3018 RMK A01 T01171014  RH  040%=      5-min Rain = 0
KTAS 152053Z 35007KT 12/M02 A3018 RMK A01 T01161016  RH  040%=      5-min Rain = 0
KTAS 152054Z 35006KT 12/M01 A3018 RMK A01 T01171013  RH  041%=      5-min Rain = 0
KTAS 152055Z 33008KT 12/M02 A3018 RMK A01 T01191015  RH  039%=      5-min Rain = 0
KTAS 152056Z 32006KT 12/M02 A3018 RMK A01 T01171018  RH  039%=      5-min Rain = 0
KTAS 152057Z 32005KT 12/M02 A3018 RMK A01 T01151019  RH  039%=      5-min Rain = 0
KTAS 152058Z 29005KT 11/M02 A3018 RMK A01 T01121020  RH  040%=      5-min Rain = 0
KTAS 152059Z 30006KT 11/M02 A3018 RMK A01 T01131019  RH  040%=      5-min Rain = 0
KTAS 152100Z 28003KT 11/M02 A3017 RMK A01 T01121021  RH  039%=      5-min Rain = 0
KTAS 152101Z 30004KT 11/M02 A3017 RMK A01 T01131015  RH  041%=      5-min Rain = 0
KTAS 152102Z 33005KT 12/M02 A3017 RMK A01 T01151017  RH  040%=      5-min Rain = 0
KTAS 152103Z 31006KT 12/M02 A3017 RMK A01 T01161018  RH  039%=      5-min Rain = 0
KTAS 152104Z 29005KT 11/M02 A3017 RMK A01 T01141018  RH  040%=      5-min Rain = 0
KTAS 152105Z 25002KT 12/M01 A3017 RMK A01 T01161013  RH  041%=      5-min Rain = 0
KTAS 152106Z 24002KT 12/M02 A3017 RMK A01 T01171016  RH  040%=      5-min Rain = 0
KTAS 152107Z 34002KT 12/M02 A3017 RMK A01 T01181017  RH  039%=      5-min Rain = 0
KTAS 152108Z 34002KT 12/M01 A3017 RMK A01 T01191014  RH  040%=      5-min Rain = 0
KTAS 152109Z 00003KT 12/M02 A3017 RMK A01 T01201017  RH  039%=      5-min Rain = 0
KTAS 152110Z 28003KT 12/M02 A3017 RMK A01 T01191016  RH  039%=      5-min Rain = 0
KTAS 152111Z 32005KT 12/M02 A3017 RMK A01 T01201017  RH  039%=      5-min Rain = 0
KTAS 152112Z 34004KT 12/M02 A3017 RMK A01 T01191017  RH  039%=      5-min Rain = 0
KTAS 152113Z 33004KT 12/M02 A3017 RMK A01 T01181017  RH  039%=      5-min Rain = 0
KTAS 152114Z 35006KT 12/M02 A3017 RMK A01 T01181020  RH  038%=      5-min Rain = 0
KTAS 152115Z 34006KT 12/M02 A3017 RMK A01 T01191019  RH  038%=      5-min Rain = 0
KTAS 152116Z 35007KT 12/M02 A3017 RMK A01 T01211018  RH  038%=      5-min Rain = 0
KTAS 152117Z 34005KT 12/M02 A3017 RMK A01 T01211019  RH  038%=      5-min Rain = 0
KTAS 152118Z 35005KT 12/M02 A3017 RMK A01 T01221016  RH  038%=      5-min Rain = 0
KTAS 152119Z 34002KT 12/M02 A3017 RMK A01 T01221019  RH  038%=      5-min Rain = 0
KTAS 152120Z 32004KT 12/M02 A3017 RMK A01 T01201021  RH  037%=      5-min Rain = 0
KTAS 152121Z 34007KT 12/M02 A3017 RMK A01 T01191021  RH  038%=      5-min Rain = 0
KTAS 152122Z 34004KT 12/M03 A3017 RMK A01 T01191026  RH  036%=      5-min Rain = 0
KTAS 152123Z 34004KT 12/M03 A3017 RMK A01 T01181027  RH  036%=      5-min Rain = 0
KTAS 152124Z 33005KT 12/M02 A3017 RMK A01 T01201023  RH  037%=      5-min Rain = 0
KTAS 152125Z 34004KT 12/M03 A3017 RMK A01 T01211025  RH  036%=      5-min Rain = 0
KTAS 152126Z 31006KT 12/M02 A3017 RMK A01 T01201024  RH  037%=      5-min Rain = 0
KTAS 152127Z 31006KT 12/M02 A3017 RMK A01 T01211018  RH  038%=      5-min Rain = 0
KTAS 152128Z 31005KT 13/M02 A3017 RMK A01 T01251016  RH  038%=      5-min Rain = 0
KTAS 152129Z 32006KT 13/M02 A3017 RMK A01 T01251018  RH  037%=      5-min Rain = 0
KTAS 152130Z 34005KT 12/M02 A3017 RMK A01 T01231020  RH  037%=      5-min Rain = 0
KTAS 152131Z 35007KT 13/M02 A3017 RMK A01 T01251021  RH  036%=      5-min Rain = 0
KTAS 152132Z 01007KT 13/M03 A3017 RMK A01 T01251026  RH  035%=      5-min Rain = 0
KTAS 152133Z 02007KT 13/M02 A3017 RMK A01 T01251022  RH  036%=      5-min Rain = 0
KTAS 152134Z 36009KT 13/M02 A3017 RMK A01 T01261024  RH  035%=      5-min Rain = 0
KTAS 152135Z 35008KT 13/M02 A3017 RMK A01 T01261023  RH  035%=      5-min Rain = 0
KTAS 152136Z 35009KT 13/M02 A3017 RMK A01 T01281020  RH  036%=      5-min Rain = 0
KTAS 152137Z 36008KT 13/M02 A3017 RMK A01 T01281023  RH  035%=      5-min Rain = 0
KTAS 152138Z 35009KT 13/M02 A3017 RMK A01 T01261022  RH  036%=      5-min Rain = 0
KTAS 152139Z 36010KT 13/M02 A3017 RMK A01 T01251023  RH  036%=      5-min Rain = 0
KTAS 152140Z 00008KT 13/M02 A3017 RMK A01 T01261021  RH  036%=      5-min Rain = 0
KTAS 152141Z 01006KT 13/M02 A3017 RMK A01 T01251024  RH  035%=      5-min Rain = 0
KTAS 152142Z 01007KT 12/M03 A3017 RMK A01 T01231025  RH  036%=      5-min Rain = 0
KTAS 152143Z 36007KT 12/M02 A3017 RMK A01 T01221022  RH  037%=      5-min Rain = 0
KTAS 152144Z 34005KT 12/M03 A3017 RMK A01 T01241025  RH  035%=      5-min Rain = 0
KTAS 152145Z 02004KT 12/M03 A3017 RMK A01 T01241026  RH  035%=      5-min Rain = 0
KTAS 152146Z 03004KT 12/M03 A3017 RMK A01 T01231028  RH  035%=      5-min Rain = 0
KTAS 152147Z 03004KT 12/M03 A3017 RMK A01 T01221025  RH  036%=      5-min Rain = 0
KTAS 152148Z 36006KT 12/M02 A3017 RMK A01 T01241018  RH  037%=      5-min Rain = 0
KTAS 152149Z 36006KT 13/M02 A3017 RMK A01 T01281017  RH  036%=      5-min Rain = 0
KTAS 152150Z 01004KT 13/M02 A3017 RMK A01 T01251023  RH  036%=      5-min Rain = 0
KTAS 152151Z 02004KT 12/M02 A3017 RMK A01 T01241021  RH  036%=      5-min Rain = 0
KTAS 152152Z 02006KT 13/M02 A3017 RMK A01 T01251020  RH  036%=      5-min Rain = 0
KTAS 152153Z 02005KT 12/M03 A3017 RMK A01 T01241025  RH  036%=      5-min Rain = 0
KTAS 152154Z 35004KT 12/M02 A3017 RMK A01 T01211022  RH  037%=      5-min Rain = 0
KTAS 152155Z 34005KT 12/M03 A3017 RMK A01 T01231025  RH  036%=      5-min Rain = 0
KTAS 152156Z 35005KT 12/M03 A3017 RMK A01 T01221025  RH  036%=      5-min Rain = 0
KTAS 152157Z 34003KT 12/M03 A3017 RMK A01 T01201028  RH  036%=      5-min Rain = 0
KTAS 152158Z 30001KT 12/M03 A3017 RMK A01 T01191027  RH  036%=      5-min Rain = 0
KTAS 152159Z 31003KT 12/M02 A3017 RMK A01 T01221020  RH  037%=      5-min Rain = 0
KTAS 152200Z 30002KT 12/M03 A3017 RMK A01 T01231025  RH  035%=      5-min Rain = 0
KTAS 152201Z 30003KT 12/M02 A3017 RMK A01 T01241023  RH  036%=      5-min Rain = 0
KTAS 152202Z 32003KT 13/M02 A3017 RMK A01 T01251024  RH  035%=      5-min Rain = 0
KTAS 152203Z 35005KT 12/M03 A3017 RMK A01 T01241026  RH  035%=      5-min Rain = 0
KTAS 152204Z 35004KT 12/M03 A3016 RMK A01 T01221028  RH  035%=      5-min Rain = 0
KTAS 152205Z 30002KT 12/M03 A3016 RMK A01 T01221029  RH  035%=      5-min Rain = 0
KTAS 152206Z 32004KT 12/M03 A3016 RMK A01 T01241026  RH  035%=      5-min Rain = 0
KTAS 152207Z 33001KT 13/M02 A3016 RMK A01 T01271023  RH  035%=      5-min Rain = 0
KTAS 152208Z 33003KT 13/M03 A3016 RMK A01 T01271025  RH  035%=      5-min Rain = 0
KTAS 152209Z 33002KT 13/M03 A3016 RMK A01 T01251030  RH  034%=      5-min Rain = 0
KTAS 152210Z 30004KT 13/M03 A3016 RMK A01 T01261028  RH  034%=      5-min Rain = 0
KTAS 152211Z 34006KT 13/M02 A3016 RMK A01 T01281024  RH  035%=      5-min Rain = 0
KTAS 152212Z 00006KT 13/M03 A3016 RMK A01 T01261032  RH  033%=      5-min Rain = 0
KTAS 152213Z 02006KT 12/M03 A3016 RMK A01 T01241032  RH  034%=      5-min Rain = 0
KTAS 152214Z 00004KT 13/M03 A3016 RMK A01 T01261026  RH  035%=      5-min Rain = 0
KTAS 152215Z 33007KT 13/M03 A3016 RMK A01 T01271028  RH  034%=      5-min Rain = 0
KTAS 152216Z 32006KT 13/M03 A3016 RMK A01 T01271027  RH  034%=      5-min Rain = 0
KTAS 152217Z 34006KT 13/M03 A3016 RMK A01 T01301025  RH  034%=      5-min Rain = 0
KTAS 152218Z 34007KT 13/M03 A3016 RMK A01 T01301028  RH  033%=      5-min Rain = 0
KTAS 152219Z 34005KT 13/M03 A3016 RMK A01 T01311027  RH  033%=      5-min Rain = 0
KTAS 152220Z 32006KT 13/M03 A3016 RMK A01 T01291034  RH  032%=      5-min Rain = 0
KTAS 152221Z 33007KT 13/M03 A3016 RMK A01 T01261033  RH  033%=      5-min Rain = 0
KTAS 152222Z 32007KT 13/M03 A3016 RMK A01 T01261030  RH  034%=      5-min Rain = 0
KTAS 152223Z 32006KT 13/M03 A3016 RMK A01 T01261030  RH  034%=      5-min Rain = 0
KTAS 152224Z 32006KT 13/M03 A3016 RMK A01 T01271031  RH  033%=      5-min Rain = 0
KTAS 152225Z 32004KT 13/M03 A3016 RMK A01 T01251033  RH  033%=      5-min Rain = 0
KTAS 152226Z 31004KT 13/M03 A3016 RMK A01 T01251033  RH  033%=      5-min Rain = 0
KTAS 152227Z 32003KT 12/M04 A3016 RMK A01 T01241035  RH  033%=      5-min Rain = 0
KTAS 152228Z 33002KT 12/M03 A3016 RMK A01 T01231032  RH  034%=      5-min Rain = 0
KTAS 152229Z 31003KT 13/M03 A3016 RMK A01 T01261028  RH  034%=      5-min Rain = 0
KTAS 152230Z 05002KT 13/M03 A3015 RMK A01 T01281030  RH  033%=      5-min Rain = 0
KTAS 152231Z 06001KT 13/M03 A3015 RMK A01 T01301028  RH  033%=      5-min Rain = 0
KTAS 152232Z 34003KT 13/M03 A3015 RMK A01 T01301028  RH  033%=      5-min Rain = 0
KTAS 152233Z 00005KT 13/M03 A3015 RMK A01 T01301030  RH  033%=      5-min Rain = 0
KTAS 152234Z 01007KT 13/M03 A3015 RMK A01 T01271032  RH  033%=      5-min Rain = 0
KTAS 152235Z 02004KT 12/M03 A3015 RMK A01 T01241032  RH  033%=      5-min Rain = 0
KTAS 152236Z 01004KT 13/M03 A3015 RMK A01 T01251028  RH  034%=      5-min Rain = 0
KTAS 152237Z 01005KT 13/M03 A3015 RMK A01 T01261030  RH  034%=      5-min Rain = 0
KTAS 152238Z 03004KT 13/M03 A3015 RMK A01 T01261028  RH  034%=      5-min Rain = 0
KTAS 152239Z 01004KT 13/M03 A3015 RMK A01 T01271030  RH  033%=      5-min Rain = 0
KTAS 152240Z 35005KT 13/M03 A3015 RMK A01 T01281028  RH  034%=      5-min Rain = 0
KTAS 152241Z 35005KT 13/M03 A3015 RMK A01 T01281030  RH  033%=      5-min Rain = 0
KTAS 152242Z 00005KT 13/M03 A3015 RMK A01 T01271028  RH  034%=      5-min Rain = 0
KTAS 152243Z 00004KT 13/M03 A3015 RMK A01 T01271030  RH  033%=      5-min Rain = 0
KTAS 152244Z 33004KT 13/M04 A3015 RMK A01 T01251035  RH  033%=      5-min Rain = 0
KTAS 152245Z 35005KT 13/M03 A3015 RMK A01 T01261034  RH  033%=      5-min Rain = 0
KTAS 152246Z 34003KT 13/M03 A3015 RMK A01 T01261031  RH  033%=      5-min Rain = 0
KTAS 152247Z 31003KT 13/M03 A3015 RMK A01 T01281029  RH  033%=      5-min Rain = 0
KTAS 152248Z 31005KT 13/M03 A3015 RMK A01 T01301030  RH  033%=      5-min Rain = 0
KTAS 152249Z 34008KT 13/M03 A3015 RMK A01 T01301029  RH  033%=      5-min Rain = 0
KTAS 152250Z 00006KT 13/M03 A3015 RMK A01 T01301027  RH  033%=      5-min Rain = 0
KTAS 152251Z 34004KT 13/M03 A3015 RMK A01 T01281030  RH  033%=      5-min Rain = 0
KTAS 152252Z 31007KT 13/M03 A3015 RMK A01 T01271030  RH  033%=      5-min Rain = 0
KTAS 152253Z 31007KT 13/M03 A3015 RMK A01 T01271032  RH  033%=      5-min Rain = 0
KTAS 152254Z 30005KT 13/M03 A3015 RMK A01 T01251033  RH  033%=      5-min Rain = 0
KTAS 152255Z 30004KT 13/M03 A3015 RMK A01 T01251032  RH  033%=      5-min Rain = 0
KTAS 152256Z 30002KT 13/M03 A3015 RMK A01 T01251033  RH  033%=      5-min Rain = 0
KTAS 152257Z 33002KT 13/M03 A3015 RMK A01 T01251033  RH  033%=      5-min Rain = 0
KTAS 152258Z 33002KT 13/M03 A3015 RMK A01 T01251031  RH  034%=      5-min Rain = 0
KTAS 152259Z 33004KT 13/M03 A3015 RMK A01 T01261031  RH  033%=      5-min Rain = 0
KTAS 152300Z 32004KT 13/M03 A3015 RMK A01 T01261033  RH  033%=      5-min Rain = 0
KTAS 152301Z 31002KT 13/M03 A3015 RMK A01 T01261032  RH  033%=      5-min Rain = 0
KTAS 152302Z 34002KT 13/M03 A3015 RMK A01 T01271033  RH  033%=      5-min Rain = 0
KTAS 152303Z 33002KT 13/M03 A3015 RMK A01 T01271033  RH  033%=      5-min Rain = 0
KTAS 152304Z 34003KT 13/M03 A3015 RMK A01 T01271033  RH  033%=      5-min Rain = 0
KTAS 152305Z 34003KT 13/M04 A3015 RMK A01 T01261037  RH  032%=      5-min Rain = 0
KTAS 152306Z 00002KT 12/M03 A3015 RMK A01 T01241034  RH  033%=      5-min Rain = 0
KTAS 152307Z 01000KT 13/M04 A3015 RMK A01 T01251036  RH  032%=      5-min Rain = 0
KTAS 152308Z 34002KT 13/M04 A3015 RMK A01 T01251035  RH  033%=      5-min Rain = 0
KTAS 152309Z 35003KT 13/M04 A3015 RMK A01 T01251036  RH  032%=      5-min Rain = 0
KTAS 152310Z 34002KT 12/M04 A3015 RMK A01 T01241037  RH  032%=      5-min Rain = 0
KTAS 152311Z 33001KT 12/M04 A3015 RMK A01 T01241037  RH  032%=      5-min Rain = 0
KTAS 152312Z 34005KT 13/M04 A3015 RMK A01 T01251036  RH  032%=      5-min Rain = 0
KTAS 152313Z 33003KT 13/M03 A3015 RMK A01 T01251033  RH  033%=      5-min Rain = 0
KTAS 152314Z 31001KT 12/M04 A3015 RMK A01 T01231037  RH  033%=      5-min Rain = 0
KTAS 152315Z 26000KT 12/M04 A3015 RMK A01 T01231036  RH  033%=      5-min Rain = 0
KTAS 152316Z 29001KT 13/M03 A3015 RMK A01 T01251033  RH  033%=      5-min Rain = 0
KTAS 152317Z 31003KT 13/M03 A3015 RMK A01 T01271030  RH  033%=      5-min Rain = 0
KTAS 152318Z 35003KT 13/M03 A3015 RMK A01 T01281030  RH  033%=      5-min Rain = 0
KTAS 152319Z 34003KT 13/M03 A3015 RMK A01 T01271033  RH  033%=      5-min Rain = 0
KTAS 152320Z 34003KT 13/M03 A3015 RMK A01 T01261034  RH  033%=      5-min Rain = 0
KTAS 152321Z 33002KT 13/M03 A3015 RMK A01 T01251034  RH  033%=      5-min Rain = 0
KTAS 152322Z 34001KT 13/M04 A3015 RMK A01 T01251035  RH  033%=      5-min Rain = 0
KTAS 152323Z 26001KT 13/M03 A3015 RMK A01 T01261034  RH  033%=      5-min Rain = 0
KTAS 152324Z 30001KT 13/M03 A3015 RMK A01 T01281033  RH  032%=      5-min Rain = 0
KTAS 152325Z 29002KT 13/M03 A3015 RMK A01 T01291032  RH  032%=      5-min Rain = 0
KTAS 152326Z 26002KT 13/M03 A3015 RMK A01 T01281032  RH  033%=      5-min Rain = 0
KTAS 152327Z 21002KT 13/M03 A3015 RMK A01 T01281031  RH  033%=      5-min Rain = 0
KTAS 152328Z 20003KT 13/M03 A3015 RMK A01 T01281034  RH  032%=      5-min Rain = 0
KTAS 152329Z 18003KT 13/M04 A3015 RMK A01 T01271035  RH  032%=      5-min Rain = 0
KTAS 152330Z 17002KT 13/M03 A3015 RMK A01 T01281032  RH  033%=      5-min Rain = 0
KTAS 152331Z 25001KT 13/M03 A3015 RMK A01 T01301029  RH  033%=      5-min Rain = 0
KTAS 152332Z 24002KT 13/M03 A3015 RMK A01 T01311031  RH  032%=      5-min Rain = 0
KTAS 152333Z 24002KT 13/M04 A3015 RMK A01 T01301036  RH  031%=      5-min Rain = 0
KTAS 152334Z 24001KT 13/M03 A3015 RMK A01 T01291034  RH  032%=      5-min Rain = 0
KTAS 152335Z 29002KT 13/M03 A3015 RMK A01 T01301033  RH  032%=      5-min Rain = 0
KTAS 152336Z 28002KT 13/M03 A3015 RMK A01 T01301033  RH  032%=      5-min Rain = 0
KTAS 152337Z 30002KT 13/M03 A3014 RMK A01 T01291033  RH  032%=      5-min Rain = 0
KTAS 152338Z 28001KT 13/M03 A3014 RMK A01 T01281032  RH  033%=      5-min Rain = 0
KTAS 152339Z 26001KT 13/M03 A3014 RMK A01 T01291032  RH  032%=      5-min Rain = 0
KTAS 152340Z 31002KT 13/M03 A3014 RMK A01 T01281034  RH  032%=      5-min Rain = 0
KTAS 152341Z 30004KT 13/M04 A3014 RMK A01 T01271035  RH  032%=      5-min Rain = 0
KTAS 152342Z 33006KT 13/M03 A3014 RMK A01 T01261034  RH  033%=      5-min Rain = 0
KTAS 152343Z 01003KT 12/M04 A3014 RMK A01 T01231036  RH  033%=      5-min Rain = 0
KTAS 152344Z 01002KT 12/M03 A3014 RMK A01 T01221033  RH  034%=      5-min Rain = 0
KTAS 152345Z 35003KT 12/M03 A3014 RMK A01 T01231032  RH  034%=      5-min Rain = 0
KTAS 152346Z 36002KT 12/M03 A3014 RMK A01 T01231031  RH  034%=      5-min Rain = 0
KTAS 152347Z 01002KT 12/M03 A3014 RMK A01 T01231032  RH  034%=      5-min Rain = 0
KTAS 152348Z 36001KT 12/M03 A3014 RMK A01 T01231032  RH  034%=      5-min Rain = 0
KTAS 152349Z 36002KT 12/M03 A3014 RMK A01 T01231034  RH  033%=      5-min Rain = 0
KTAS 152350Z 33002KT 12/M04 A3014 RMK A01 T01231035  RH  033%=      5-min Rain = 0
KTAS 152351Z 31002KT 12/M04 A3014 RMK A01 T01231035  RH  033%=      5-min Rain = 0
KTAS 152352Z 32002KT 12/M04 A3014 RMK A01 T01221036  RH  033%=      5-min Rain = 0
KTAS 152353Z 30002KT 12/M04 A3014 RMK A01 T01221035  RH  033%=      5-min Rain = 0
KTAS 152354Z 31003KT 12/M04 A3014 RMK A01 T01221036  RH  033%=      5-min Rain = 0
KTAS 152355Z 33002KT 12/M04 A3014 RMK A01 T01221035  RH  033%=      5-min Rain = 0
KTAS 152356Z 31001KT 12/M04 A3014 RMK A01 T01221035  RH  033%=      5-min Rain = 0
KTAS 152357Z 26002KT 12/M04 A3014 RMK A01 T01231036  RH  033%=      5-min Rain = 0
KTAS 152358Z 24001KT 12/M04 A3014 RMK A01 T01241038  RH  032%=      5-min Rain = 0
KTAS 152359Z 24001KT 13/M03 A3014 RMK A01 T01251034  RH  033%=      5-min Rain = 0
KTAS 160000Z 29001KT 13/M04 A3014 RMK A01 T01261035  RH  033%=      5-min Rain = 0
KTAS 160001Z 28001KT 13/M04 A3014 RMK A01 T01251039  RH  032%=      5-min Rain = 0
KTAS 160002Z 29001KT 13/M04 A3014 RMK A01 T01251037  RH  032%=      5-min Rain = 0
KTAS 160003Z 28001KT 13/M04 A3014 RMK A01 T01251038  RH  032%=      5-min Rain = 0
KTAS 160004Z 27001KT 13/M04 A3014 RMK A01 T01251038  RH  032%=      5-min Rain = 0
KTAS 160005Z 29002KT 13/M03 A3014 RMK A01 T01251034  RH  033%=      5-min Rain = 0
KTAS 160006Z 29002KT 13/M04 A3014 RMK A01 T01251036  RH  032%=      5-min Rain = 0
KTAS 160007Z 29002KT 12/M04 A3014 RMK A01 T01241038  RH  032%=      5-min Rain = 0
KTAS 160008Z 29002KT 12/M04 A3014 RMK A01 T01231038  RH  032%=      5-min Rain = 0
KTAS 160009Z 28001KT 12/M04 A3014 RMK A01 T01221038  RH  032%=      5-min Rain = 0
KTAS 160010Z 28001KT 12/M04 A3014 RMK A01 T01221038  RH  033%=      5-min Rain = 0
KTAS 160011Z 28001KT 12/M04 A3014 RMK A01 T01221038  RH  033%=      5-min Rain = 0
KTAS 160012Z 29001KT 12/M04 A3014 RMK A01 T01211038  RH  033%=      5-min Rain = 0
KTAS 160013Z 30001KT 12/M04 A3014 RMK A01 T01211038  RH  033%=      5-min Rain = 0
KTAS 160014Z 31001KT 12/M04 A3014 RMK A01 T01201037  RH  033%=      5-min Rain = 0
KTAS 160015Z 31001KT 12/M04 A3014 RMK A01 T01191038  RH  033%=      5-min Rain = 0
KTAS 160016Z 31001KT 12/M04 A3014 RMK A01 T01191036  RH  034%=      5-min Rain = 0
KTAS 160017Z 31001KT 12/M04 A3014 RMK A01 T01191037  RH  034%=      5-min Rain = 0
KTAS 160018Z 31001KT 12/M04 A3014 RMK A01 T01181036  RH  034%=      5-min Rain = 0
KTAS 160019Z 31001KT 12/M04 A3014 RMK A01 T01181036  RH  034%=      5-min Rain = 0
KTAS 160020Z 31001KT 12/M04 A3014 RMK A01 T01181036  RH  034%=      5-min Rain = 0
KTAS 160021Z 30001KT 12/M03 A3014 RMK A01 T01191034  RH  034%=      5-min Rain = 0
KTAS 160022Z 29000KT 12/M04 A3014 RMK A01 T01191035  RH  034%=      5-min Rain = 0
KTAS 160023Z 28001KT 12/M04 A3014 RMK A01 T01191036  RH  034%=      5-min Rain = 0
KTAS 160024Z 28001KT 12/M04 A3014 RMK A01 T01191036  RH  034%=      5-min Rain = 0
KTAS 160025Z 28000KT 12/M04 A3014 RMK A01 T01181036  RH  034%=      5-min Rain = 0
KTAS 160026Z 28000KT 12/M04 A3014 RMK A01 T01171036  RH  034%=      5-min Rain = 0
KTAS 160027Z 00000KT 12/M04 A3014 RMK A01 T01161036  RH  034%=      5-min Rain = 0
KTAS 160028Z 00000KT 11/M04 A3014 RMK A01 T01141036  RH  035%=      5-min Rain = 0
KTAS 160029Z 00000KT 11/M04 A3014 RMK A01 T01131035  RH  035%=      5-min Rain = 0
KTAS 160030Z 25000KT 11/M04 A3014 RMK A01 T01121036  RH  035%=      5-min Rain = 0
KTAS 160031Z 25000KT 11/M04 A3014 RMK A01 T01111035  RH  036%=      5-min Rain = 0
KTAS 160032Z 00000KT 11/M04 A3014 RMK A01 T01101035  RH  036%=      5-min Rain = 0
KTAS 160033Z 00000KT 11/M04 A3013 RMK A01 T01091035  RH  036%=      5-min Rain = 0
KTAS 160034Z 00000KT 11/M04 A3013 RMK A01 T01081035  RH  036%=      5-min Rain = 0
KTAS 160035Z 00000KT 11/M04 A3013 RMK A01 T01081035  RH  037%=      5-min Rain = 0
KTAS 160036Z 00000KT 11/M03 A3013 RMK A01 T01071034  RH  037%=      5-min Rain = 0
KTAS 160037Z 00000KT 11/M03 A3013 RMK A01 T01061034  RH  037%=      5-min Rain = 0
KTAS 160038Z 00000KT 11/M04 A3013 RMK A01 T01061035  RH  037%=      5-min Rain = 0
KTAS 160039Z 00000KT 11/M04 A3013 RMK A01 T01051035  RH  037%=      5-min Rain = 0
KTAS 160040Z 00000KT 11/M03 A3013 RMK A01 T01051034  RH  037%=      5-min Rain = 0
KTAS 160041Z 00000KT 10/M03 A3013 RMK A01 T01041034  RH  038%=      5-min Rain = 0
KTAS 160042Z 00000KT 10/M04 A3013 RMK A01 T01041035  RH  038%=      5-min Rain = 0
KTAS 160043Z 19000KT 10/M03 A3013 RMK A01 T01021034  RH  038%=      5-min Rain = 0
KTAS 160044Z 19002KT 10/M03 A3013 RMK A01 T00991026  RH  041%=      5-min Rain = 0
KTAS 160045Z 19002KT 10/M02 A3013 RMK A01 T00971022  RH  043%=      5-min Rain = 0
KTAS 160046Z 19002KT 10/M02 A3013 RMK A01 T00951018  RH  045%=      5-min Rain = 0
KTAS 160047Z 20003KT 09/M02 A3013 RMK A01 T00931018  RH  046%=      5-min Rain = 0
KTAS 160048Z 20003KT 09/M02 A3013 RMK A01 T00911020  RH  046%=      5-min Rain = 0
KTAS 160049Z 20003KT 09/M02 A3013 RMK A01 T00911020  RH  046%=      5-min Rain = 0
KTAS 160050Z 20003KT 09/M02 A3013 RMK A01 T00901018  RH  047%=      5-min Rain = 0
KTAS 160051Z 19003KT 09/M02 A3013 RMK A01 T00901015  RH  048%=      5-min Rain = 0
KTAS 160052Z 19003KT 09/M01 A3013 RMK A01 T00901014  RH  048%=      5-min Rain = 0
KTAS 160053Z 19003KT 09/M02 A3013 RMK A01 T00901018  RH  047%=      5-min Rain = 0
KTAS 160054Z 19003KT 09/M02 A3013 RMK A01 T00911018  RH  047%=      5-min Rain = 0
KTAS 160055Z 18003KT 09/M02 A3013 RMK A01 T00911017  RH  047%=      5-min Rain = 0
KTAS 160056Z 18003KT 09/M02 A3013 RMK A01 T00901017  RH  047%=      5-min Rain = 0
KTAS 160057Z 18005KT 09/M02 A3013 RMK A01 T00881018  RH  047%=      5-min Rain = 0
KTAS 160058Z 16005KT 08/M02 A3013 RMK A01 T00831018  RH  049%=      5-min Rain = 0
KTAS 160059Z 16004KT 08/M01 A3013 RMK A01 T00781014  RH  052%=      5-min Rain = 0
KTAS 160100Z 16004KT 08/M01 A3013 RMK A01 T00751010  RH  055%=      5-min Rain = 0
KTAS 160101Z 16004KT 08/M00 A3013 RMK A01 T00751004  RH  057%=      5-min Rain = 0
KTAS 160102Z 16005KT 08/M00 A3013 RMK A01 T00761004  RH  057%=      5-min Rain = 0
KTAS 160103Z 16005KT 08/M00 A3013 RMK A01 T00751003  RH  058%=      5-min Rain = 0
KTAS 160104Z 16006KT 07/M00 A3013 RMK A01 T00731002  RH  059%=      5-min Rain = 0
KTAS 160105Z 16006KT 07/M00 A3013 RMK A01 T00711001  RH  060%=      5-min Rain = 0
KTAS 160106Z 17005KT 07/00 A3013 RMK A01 T00700003  RH  063%=      5-min Rain = 0
KTAS 160107Z 17005KT 07/01 A3013 RMK A01 T00700005  RH  063%=      5-min Rain = 0
KTAS 160108Z 17005KT 07/01 A3013 RMK A01 T00710008  RH  064%=      5-min Rain = 0
KTAS 160109Z 17006KT 07/01 A3013 RMK A01 T00720009  RH  064%=      5-min Rain = 0
KTAS 160110Z 17006KT 07/01 A3013 RMK A01 T00720010  RH  065%=      5-min Rain = 0
KTAS 160111Z 17006KT 07/01 A3013 RMK A01 T00710010  RH  065%=      5-min Rain = 0
KTAS 160112Z 16006KT 07/01 A3013 RMK A01 T00690010  RH  066%=      5-min Rain = 0
KTAS 160113Z 16006KT 07/01 A3013 RMK A01 T00690011  RH  067%=      5-min Rain = 0
KTAS 160114Z 16006KT 07/01 A3013 RMK A01 T00690010  RH  066%=      5-min Rain = 0
KTAS 160115Z 16006KT 07/01 A3013 RMK A01 T00700011  RH  066%=      5-min Rain = 0
KTAS 160116Z 16006KT 07/01 A3013 RMK A01 T00700012  RH  066%=      5-min Rain = 0
KTAS 160117Z 16006KT 07/01 A3013 RMK A01 T00700012  RH  067%=      5-min Rain = 0
KTAS 160118Z 16005KT 07/01 A3013 RMK A01 T00700013  RH  067%=      5-min Rain = 0
KTAS 160119Z 16005KT 07/01 A3013 RMK A01 T00700013  RH  067%=      5-min Rain = 0
KTAS 160120Z 16006KT 07/01 A3013 RMK A01 T00690013  RH  068%=      5-min Rain = 0
KTAS 160121Z 16005KT 07/01 A3013 RMK A01 T00680012  RH  068%=      5-min Rain = 0
KTAS 160122Z 17005KT 07/01 A3013 RMK A01 T00670011  RH  068%=      5-min Rain = 0
KTAS 160123Z 17005KT 07/01 A3013 RMK A01 T00650011  RH  069%=      5-min Rain = 0
KTAS 160124Z 17006KT 06/01 A3013 RMK A01 T00630012  RH  070%=      5-min Rain = 0
KTAS 160125Z 17006KT 06/01 A3014 RMK A01 T00620012  RH  070%=      5-min Rain = 0
KTAS 160126Z 17006KT 06/01 A3014 RMK A01 T00610012  RH  071%=      5-min Rain = 0
KTAS 160127Z 17006KT 06/01 A3014 RMK A01 T00590011  RH  071%=      5-min Rain = 0
KTAS 160128Z 17006KT 06/01 A3014 RMK A01 T00570010  RH  072%=      5-min Rain = 0
KTAS 160129Z 17006KT 06/01 A3014 RMK A01 T00560011  RH  073%=      5-min Rain = 0
KTAS 160130Z 17006KT 06/01 A3014 RMK A01 T00560012  RH  073%=      5-min Rain = 0
KTAS 160131Z 17006KT 06/01 A3014 RMK A01 T00560012  RH  074%=      5-min Rain = 0
KTAS 160132Z 17006KT 06/01 A3014 RMK A01 T00560013  RH  074%=      5-min Rain = 0
KTAS 160133Z 17006KT 06/01 A3014 RMK A01 T00570013  RH  074%=      5-min Rain = 0
KTAS 160134Z 17006KT 06/01 A3014 RMK A01 T00570014  RH  073%=      5-min Rain = 0
KTAS 160135Z 17006KT 06/01 A3014 RMK A01 T00580014  RH  073%=      5-min Rain = 0
KTAS 160136Z 17006KT 06/01 A3013 RMK A01 T00580014  RH  073%=      5-min Rain = 0
KTAS 160137Z 16006KT 06/01 A3013 RMK A01 T00580014  RH  074%=      5-min Rain = 0
KTAS 160138Z 16006KT 06/02 A3014 RMK A01 T00580015  RH  074%=      5-min Rain = 0
KTAS 160139Z 17006KT 06/01 A3014 RMK A01 T00580014  RH  073%=      5-min Rain = 0
KTAS 160140Z 16006KT 06/01 A3014 RMK A01 T00580014  RH  073%=      5-min Rain = 0
KTAS 160141Z 16006KT 06/01 A3014 RMK A01 T00590014  RH  073%=      5-min Rain = 0
KTAS 160142Z 17006KT 06/02 A3014 RMK A01 T00590015  RH  073%=      5-min Rain = 0
KTAS 160143Z 17006KT 06/02 A3014 RMK A01 T00590015  RH  073%=      5-min Rain = 0
KTAS 160144Z 17006KT 06/01 A3014 RMK A01 T00580014  RH  073%=      5-min Rain = 0
KTAS 160145Z 17006KT 06/01 A3014 RMK A01 T00570014  RH  074%=      5-min Rain = 0
KTAS 160146Z 17007KT 06/01 A3014 RMK A01 T00560014  RH  074%=      5-min Rain = 0
KTAS 160147Z 17007KT 06/01 A3014 RMK A01 T00550014  RH  075%=      5-min Rain = 0
KTAS 160148Z 17007KT 06/01 A3014 RMK A01 T00550014  RH  075%=      5-min Rain = 0
KTAS 160149Z 16007KT 05/01 A3014 RMK A01 T00540014  RH  075%=      5-min Rain = 0
KTAS 160150Z 16007KT 06/01 A3013 RMK A01 T00550014  RH  075%=      5-min Rain = 0
KTAS 160151Z 16007KT 06/01 A3013 RMK A01 T00550014  RH  075%=      5-min Rain = 0
KTAS 160152Z 16007KT 06/01 A3013 RMK A01 T00550014  RH  075%=      5-min Rain = 0
KTAS 160153Z 16006KT 06/01 A3013 RMK A01 T00550014  RH  075%=      5-min Rain = 0
KTAS 160154Z 16006KT 06/01 A3013 RMK A01 T00550014  RH  075%=      5-min Rain = 0
KTAS 160155Z 16006KT 06/01 A3013 RMK A01 T00560014  RH  075%=      5-min Rain = 0
KTAS 160156Z 16006KT 06/01 A3013 RMK A01 T00560014  RH  075%=      5-min Rain = 0
KTAS 160157Z 16006KT 06/01 A3013 RMK A01 T00560014  RH  075%=      5-min Rain = 0
KTAS 160158Z 16006KT 06/02 A3013 RMK A01 T00560015  RH  075%=      5-min Rain = 0
KTAS 160159Z 16006KT 06/01 A3013 RMK A01 T00560014  RH  074%=      5-min Rain = 0
KTAS 160200Z 16007KT 06/01 A3013 RMK A01 T00560014  RH  074%=      5-min Rain = 0
KTAS 160201Z 17007KT 06/01 A3013 RMK A01 T00550013  RH  074%=      5-min Rain = 0
KTAS 160202Z 17007KT 05/01 A3013 RMK A01 T00540013  RH  075%=      5-min Rain = 0
KTAS 160203Z 17007KT 05/01 A3013 RMK A01 T00530012  RH  075%=      5-min Rain = 0
KTAS 160204Z 17007KT 05/01 A3013 RMK A01 T00510012  RH  076%=      5-min Rain = 0
KTAS 160205Z 17007KT 05/01 A3013 RMK A01 T00500011  RH  076%=      5-min Rain = 0
KTAS 160206Z 18006KT 05/01 A3014 RMK A01 T00490011  RH  077%=      5-min Rain = 0
KTAS 160207Z 17007KT 05/01 A3014 RMK A01 T00480011  RH  077%=      5-min Rain = 0
KTAS 160208Z 17007KT 05/01 A3014 RMK A01 T00470011  RH  077%=      5-min Rain = 0
KTAS 160209Z 17007KT 05/01 A3014 RMK A01 T00470011  RH  078%=      5-min Rain = 0
KTAS 160210Z 18007KT 05/01 A3014 RMK A01 T00460010  RH  077%=      5-min Rain = 0
KTAS 160211Z 18007KT 05/01 A3014 RMK A01 T00450010  RH  078%=      5-min Rain = 0
KTAS 160212Z 17007KT 05/01 A3014 RMK A01 T00450009  RH  078%=      5-min Rain = 0
KTAS 160213Z 18007KT 05/01 A3014 RMK A01 T00450010  RH  078%=      5-min Rain = 0
KTAS 160214Z 18007KT 05/01 A3014 RMK A01 T00450009  RH  078%=      5-min Rain = 0
KTAS 160215Z 18007KT 04/01 A3014 RMK A01 T00440009  RH  078%=      5-min Rain = 0
KTAS 160216Z 18007KT 04/01 A3014 RMK A01 T00440008  RH  078%=      5-min Rain = 0
KTAS 160217Z 18007KT 04/01 A3014 RMK A01 T00430008  RH  078%=      5-min Rain = 0
KTAS 160218Z 18007KT 04/01 A3014 RMK A01 T00420008  RH  078%=      5-min Rain = 0
KTAS 160219Z 18007KT 04/01 A3014 RMK A01 T00420007  RH  078%=      5-min Rain = 0
KTAS 160220Z 18007KT 04/01 A3014 RMK A01 T00410007  RH  078%=      5-min Rain = 0
KTAS 160221Z 18007KT 04/01 A3014 RMK A01 T00410007  RH  078%=      5-min Rain = 0
KTAS 160222Z 18007KT 04/01 A3014 RMK A01 T00410007  RH  079%=      5-min Rain = 0
KTAS 160223Z 18007KT 04/01 A3014 RMK A01 T00400007  RH  079%=      5-min Rain = 0
KTAS 160224Z 18008KT 04/01 A3014 RMK A01 T00400007  RH  079%=      5-min Rain = 0
KTAS 160225Z 19008KT 04/01 A3014 RMK A01 T00400006  RH  079%=      5-min Rain = 0
KTAS 160226Z 19009KT 04/01 A3014 RMK A01 T00380005  RH  079%=      5-min Rain = 0
KTAS 160227Z 19008KT 04/01 A3014 RMK A01 T00370005  RH  079%=      5-min Rain = 0
KTAS 160228Z 19008KT 04/01 A3014 RMK A01 T00370005  RH  080%=      5-min Rain = 0
KTAS 160229Z 19008KT 04/01 A3014 RMK A01 T00370006  RH  080%=      5-min Rain = 0
KTAS 160230Z 18008KT 04/01 A3014 RMK A01 T00370006  RH  080%=      5-min Rain = 0
KTAS 160231Z 18008KT 04/01 A3014 RMK A01 T00380007  RH  080%=      5-min Rain = 0
KTAS 160232Z 18008KT 04/01 A3014 RMK A01 T00380007  RH  080%=      5-min Rain = 0
KTAS 160233Z 18008KT 04/01 A3014 RMK A01 T00380008  RH  080%=      5-min Rain = 0
KTAS 160234Z 18007KT 04/01 A3014 RMK A01 T00390008  RH  080%=      5-min Rain = 0
KTAS 160235Z 18008KT 04/01 A3014 RMK A01 T00390008  RH  080%=      5-min Rain = 0
KTAS 160236Z 18008KT 04/01 A3014 RMK A01 T00400008  RH  080%=      5-min Rain = 0
KTAS 160237Z 18008KT 04/01 A3014 RMK A01 T00400008  RH  080%=      5-min Rain = 0
KTAS 160238Z 18008KT 04/01 A3014 RMK A01 T00400008  RH  079%=      5-min Rain = 0
KTAS 160239Z 18008KT 04/01 A3014 RMK A01 T00400008  RH  079%=      5-min Rain = 0
KTAS 160240Z 18007KT 04/01 A3014 RMK A01 T00400007  RH  079%=      5-min Rain = 0
KTAS 160241Z 18007KT 04/01 A3014 RMK A01 T00400008  RH  079%=      5-min Rain = 0
KTAS 160242Z 18007KT 04/01 A3014 RMK A01 T00400008  RH  079%=      5-min Rain = 0
KTAS 160243Z 18007KT 04/01 A3014 RMK A01 T00400008  RH  079%=      5-min Rain = 0
KTAS 160244Z 18007KT 04/01 A3014 RMK A01 T00400007  RH  079%=      5-min Rain = 0
KTAS 160245Z 19008KT 04/01 A3014 RMK A01 T00400007  RH  079%=      5-min Rain = 0
KTAS 160246Z 19007KT 04/01 A3014 RMK A01 T00390006  RH  079%=      5-min Rain = 0
KTAS 160247Z 19007KT 04/01 A3014 RMK A01 T00380005  RH  079%=      5-min Rain = 0
KTAS 160248Z 19007KT 04/00 A3014 RMK A01 T00370004  RH  079%=      5-min Rain = 0
KTAS 160249Z 19007KT 04/00 A3014 RMK A01 T00360004  RH  080%=      5-min Rain = 0
KTAS 160250Z 19007KT 04/00 A3014 RMK A01 T00350004  RH  080%=      5-min Rain = 0
KTAS 160251Z 19006KT 04/00 A3014 RMK A01 T00350004  RH  080%=      5-min Rain = 0
KTAS 160252Z 19006KT 04/01 A3014 RMK A01 T00350005  RH  081%=      5-min Rain = 0
KTAS 160253Z 19006KT 04/01 A3014 RMK A01 T00360006  RH  081%=      5-min Rain = 0
KTAS 160254Z 19006KT 04/01 A3014 RMK A01 T00360006  RH  081%=      5-min Rain = 0
KTAS 160255Z 19006KT 04/01 A3014 RMK A01 T00360007  RH  081%=      5-min Rain = 0
KTAS 160256Z 19006KT 04/01 A3014 RMK A01 T00370007  RH  081%=      5-min Rain = 0
KTAS 160257Z 19006KT 04/01 A3014 RMK A01 T00370007  RH  081%=      5-min Rain = 0
KTAS 160258Z 19006KT 04/01 A3014 RMK A01 T00370007  RH  081%=      5-min Rain = 0
KTAS 160259Z 19006KT 04/01 A3014 RMK A01 T00370008  RH  081%=      5-min Rain = 0
KTAS 160300Z 19006KT 04/01 A3014 RMK A01 T00380007  RH  081%=      5-min Rain = 0
KTAS 160301Z 19006KT 04/01 A3014 RMK A01 T00380007  RH  080%=      5-min Rain = 0
KTAS 160302Z 19006KT 04/01 A3014 RMK A01 T00380007  RH  080%=      5-min Rain = 0
KTAS 160303Z 19006KT 04/01 A3014 RMK A01 T00380007  RH  080%=      5-min Rain = 0
KTAS 160304Z 19007KT 04/01 A3014 RMK A01 T00370006  RH  080%=      5-min Rain = 0
KTAS 160305Z 19007KT 04/01 A3014 RMK A01 T00360005  RH  080%=      5-min Rain = 0
KTAS 160306Z 19007KT 04/01 A3014 RMK A01 T00360005  RH  080%=      5-min Rain = 0
KTAS 160307Z 19007KT 04/01 A3014 RMK A01 T00350005  RH  081%=      5-min Rain = 0
KTAS 160308Z 19008KT 04/01 A3014 RMK A01 T00350005  RH  081%=      5-min Rain = 0
KTAS 160309Z 19008KT 03/00 A3014 RMK A01 T00340004  RH  081%=      5-min Rain = 0
KTAS 160310Z 19008KT 03/00 A3014 RMK A01 T00340004  RH  081%=      5-min Rain = 0
KTAS 160311Z 19007KT 03/00 A3014 RMK A01 T00340004  RH  081%=      5-min Rain = 0
KTAS 160312Z 19007KT 03/00 A3014 RMK A01 T00330003  RH  081%=      5-min Rain = 0
KTAS 160313Z 19007KT 03/00 A3014 RMK A01 T00330003  RH  081%=      5-min Rain = 0
KTAS 160314Z 19007KT 03/00 A3014 RMK A01 T00330003  RH  081%=      5-min Rain = 0
KTAS 160315Z 19007KT 03/00 A3014 RMK A01 T00330004  RH  081%=      5-min Rain = 0
KTAS 160316Z 19007KT 03/00 A3014 RMK A01 T00340004  RH  081%=      5-min Rain = 0
KTAS 160317Z 19007KT 03/00 A3014 RMK A01 T00340004  RH  081%=      5-min Rain = 0
KTAS 160318Z 19007KT 03/00 A3014 RMK A01 T00340004  RH  081%=      5-min Rain = 0
KTAS 160319Z 18007KT 03/01 A3014 RMK A01 T00340005  RH  081%=      5-min Rain = 0
KTAS 160320Z 18007KT 03/01 A3014 RMK A01 T00340005  RH  081%=      5-min Rain = 0
KTAS 160321Z 18007KT 03/00 A3014 RMK A01 T00340004  RH  081%=      5-min Rain = 0
KTAS 160322Z 18007KT 03/00 A3014 RMK A01 T00330004  RH  081%=      5-min Rain = 0
KTAS 160323Z 18007KT 03/00 A3015 RMK A01 T00330003  RH  081%=      5-min Rain = 0
KTAS 160324Z 19008KT 03/00 A3015 RMK A01 T00330003  RH  081%=      5-min Rain = 0
KTAS 160325Z 19008KT 03/00 A3015 RMK A01 T00320003  RH  081%=      5-min Rain = 0
KTAS 160326Z 19008KT 03/00 A3015 RMK A01 T00330003  RH  081%=      5-min Rain = 0
KTAS 160327Z 19008KT 03/00 A3015 RMK A01 T00320002  RH  081%=      5-min Rain = 0
KTAS 160328Z 19008KT 03/00 A3015 RMK A01 T00320002  RH  081%=      5-min Rain = 0
KTAS 160329Z 18007KT 03/00 A3014 RMK A01 T00320002  RH  081%=      5-min Rain = 0
KTAS 160330Z 18007KT 03/00 A3014 RMK A01 T00320002  RH  081%=      5-min Rain = 0
KTAS 160331Z 18007KT 03/00 A3014 RMK A01 T00330002  RH  081%=      5-min Rain = 0
KTAS 160332Z 19007KT 03/00 A3014 RMK A01 T00330002  RH  080%=      5-min Rain = 0
KTAS 160333Z 19007KT 03/00 A3014 RMK A01 T00330002  RH  080%=      5-min Rain = 0
KTAS 160334Z 19006KT 03/00 A3014 RMK A01 T00320002  RH  080%=      5-min Rain = 0
KTAS 160335Z 19006KT 03/00 A3014 RMK A01 T00320001  RH  080%=      5-min Rain = 0
KTAS 160336Z 19006KT 03/00 A3014 RMK A01 T00320002  RH  081%=      5-min Rain = 0
KTAS 160337Z 19006KT 03/00 A3014 RMK A01 T00310002  RH  081%=      5-min Rain = 0
KTAS 160338Z 19007KT 03/00 A3014 RMK A01 T00310002  RH  081%=      5-min Rain = 0
KTAS 160339Z 19006KT 03/00 A3014 RMK A01 T00310002  RH  081%=      5-min Rain = 0
KTAS 160340Z 19006KT 03/00 A3014 RMK A01 T00320003  RH  081%=      5-min Rain = 0
KTAS 160341Z 19007KT 03/00 A3015 RMK A01 T00320003  RH  081%=      5-min Rain = 0
KTAS 160342Z 19007KT 03/00 A3015 RMK A01 T00330003  RH  081%=      5-min Rain = 0
KTAS 160343Z 19006KT 03/00 A3015 RMK A01 T00330003  RH  081%=      5-min Rain = 0
KTAS 160344Z 19006KT 03/00 A3015 RMK A01 T00340003  RH  080%=      5-min Rain = 0
KTAS 160345Z 19006KT 03/00 A3015 RMK A01 T00340003  RH  080%=      5-min Rain = 0
KTAS 160346Z 19006KT 03/00 A3015 RMK A01 T00340003  RH  080%=      5-min Rain = 0
KTAS 160347Z 19006KT 03/00 A3015 RMK A01 T00340002  RH  080%=      5-min Rain = 0
KTAS 160348Z 19006KT 03/00 A3015 RMK A01 T00340002  RH  080%=      5-min Rain = 0
KTAS 160349Z 19006KT 03/00 A3015 RMK A01 T00330002  RH  080%=      5-min Rain = 0
KTAS 160350Z 19006KT 03/00 A3015 RMK A01 T00330002  RH  080%=      5-min Rain = 0
KTAS 160351Z 19006KT 03/00 A3015 RMK A01 T00330002  RH  080%=      5-min Rain = 0
KTAS 160352Z 19006KT 03/00 A3015 RMK A01 T00320002  RH  080%=      5-min Rain = 0
KTAS 160353Z 19006KT 03/00 A3015 RMK A01 T00320001  RH  080%=      5-min Rain = 0
KTAS 160354Z 19006KT 03/00 A3015 RMK A01 T00320001  RH  080%=      5-min Rain = 0
KTAS 160355Z 19006KT 03/00 A3015 RMK A01 T00320001  RH  080%=      5-min Rain = 0
KTAS 160356Z 19006KT 03/00 A3015 RMK A01 T00320001  RH  080%=      5-min Rain = 0
KTAS 160357Z 19006KT 03/00 A3015 RMK A01 T00320001  RH  080%=      5-min Rain = 0
KTAS 160358Z 19006KT 03/00 A3015 RMK A01 T00320001  RH  080%=      5-min Rain = 0
KTAS 160359Z 19006KT 03/00 A3015 RMK A01 T00320001  RH  080%=      5-min Rain = 0
KTAS 160400Z 19006KT 03/00 A3015 RMK A01 T00320001  RH  080%=      5-min Rain = 0
KTAS 160401Z 19005KT 03/00 A3015 RMK A01 T00320002  RH  080%=      5-min Rain = 0
KTAS 160402Z 20006KT 03/00 A3015 RMK A01 T00330002  RH  080%=      5-min Rain = 0
KTAS 160403Z 20006KT 03/00 A3015 RMK A01 T00320001  RH  080%=      5-min Rain = 0
KTAS 160404Z 20006KT 03/00 A3015 RMK A01 T00320001  RH  080%=      5-min Rain = 0
KTAS 160405Z 20005KT 03/00 A3015 RMK A01 T00320001  RH  080%=      5-min Rain = 0
KTAS 160406Z 20005KT 03/00 A3015 RMK A01 T00330002  RH  080%=      5-min Rain = 0
KTAS 160407Z 20005KT 03/00 A3015 RMK A01 T00330002  RH  080%=      5-min Rain = 0
KTAS 160408Z 20006KT 03/00 A3015 RMK A01 T00330001  RH  080%=      5-min Rain = 0
KTAS 160409Z 20006KT 03/00 A3015 RMK A01 T00330001  RH  079%=      5-min Rain = 0
KTAS 160410Z 20006KT 03/00 A3015 RMK A01 T00330001  RH  079%=      5-min Rain = 0
KTAS 160411Z 20006KT 03/00 A3015 RMK A01 T00330000  RH  079%=      5-min Rain = 0
KTAS 160412Z 20006KT 03/00 A3015 RMK A01 T003300-0  RH  079%=      5-min Rain = 0
KTAS 160413Z 20006KT 03/M00 A3015 RMK A01 T00331001  RH  078%=      5-min Rain = 0
KTAS 160414Z 20006KT 03/M00 A3015 RMK A01 T00331001  RH  078%=      5-min Rain = 0
KTAS 160415Z 20006KT 03/M00 A3015 RMK A01 T00331001  RH  078%=      5-min Rain = 0
KTAS 160416Z 20006KT 03/M00 A3015 RMK A01 T00331001  RH  078%=      5-min Rain = 0
KTAS 160417Z 20006KT 03/M00 A3015 RMK A01 T00331001  RH  078%=      5-min Rain = 0
KTAS 160418Z 20006KT 04/M00 A3014 RMK A01 T00351001  RH  078%=      5-min Rain = 0
KTAS 160419Z 20006KT 04/00 A3014 RMK A01 T003600-0  RH  077%=      5-min Rain = 0
KTAS 160420Z 20006KT 04/00 A3014 RMK A01 T00370001  RH  077%=      5-min Rain = 0
KTAS 160421Z 20006KT 04/00 A3014 RMK A01 T00390002  RH  077%=      5-min Rain = 0
KTAS 160422Z 20006KT 04/00 A3014 RMK A01 T00400001  RH  076%=      5-min Rain = 0
KTAS 160423Z 20006KT 04/00 A3014 RMK A01 T00400001  RH  076%=      5-min Rain = 0
KTAS 160424Z 21006KT 04/00 A3014 RMK A01 T00400001  RH  076%=      5-min Rain = 0
KTAS 160425Z 21006KT 04/00 A3014 RMK A01 T00390001  RH  076%=      5-min Rain = 0
KTAS 160426Z 21006KT 04/00 A3014 RMK A01 T00390000  RH  076%=      5-min Rain = 0
KTAS 160427Z 20006KT 04/M00 A3014 RMK A01 T00381001  RH  076%=      5-min Rain = 0
KTAS 160428Z 21006KT 04/M00 A3014 RMK A01 T00381001  RH  076%=      5-min Rain = 0
KTAS 160429Z 21006KT 04/M00 A3014 RMK A01 T00371002  RH  076%=      5-min Rain = 0
KTAS 160430Z 21007KT 04/M00 A3014 RMK A01 T00371002  RH  076%=      5-min Rain = 0
KTAS 160431Z 21007KT 04/M00 A3014 RMK A01 T00371002  RH  076%=      5-min Rain = 0
KTAS 160432Z 21007KT 04/M00 A3014 RMK A01 T00381001  RH  076%=      5-min Rain = 0
KTAS 160433Z 21007KT 04/M00 A3014 RMK A01 T00381001  RH  076%=      5-min Rain = 0
KTAS 160434Z 20007KT 04/00 A3014 RMK A01 T003900-0  RH  075%=      5-min Rain = 0
KTAS 160435Z 20007KT 04/00 A3014 RMK A01 T00400000  RH  075%=      5-min Rain = 0
KTAS 160436Z 20007KT 04/00 A3014 RMK A01 T00410001  RH  075%=      5-min Rain = 0
KTAS 160437Z 21007KT 04/00 A3014 RMK A01 T00420001  RH  075%=      5-min Rain = 0
KTAS 160438Z 20007KT 04/00 A3014 RMK A01 T00420001  RH  075%=      5-min Rain = 0
KTAS 160439Z 21007KT 04/00 A3014 RMK A01 T00420001  RH  075%=      5-min Rain = 0
KTAS 160440Z 20007KT 04/00 A3014 RMK A01 T00420001  RH  075%=      5-min Rain = 0
KTAS 160441Z 21007KT 04/00 A3014 RMK A01 T00420001  RH  074%=      5-min Rain = 0
KTAS 160442Z 20007KT 04/00 A3014 RMK A01 T00420001  RH  074%=      5-min Rain = 0
KTAS 160443Z 20007KT 04/00 A3014 RMK A01 T00420001  RH  074%=      5-min Rain = 0
KTAS 160444Z 20007KT 04/00 A3014 RMK A01 T00420001  RH  074%=      5-min Rain = 0
KTAS 160445Z 21007KT 04/00 A3014 RMK A01 T00420001  RH  074%=      5-min Rain = 0
KTAS 160446Z 20007KT 04/00 A3014 RMK A01 T00430001  RH  074%=      5-min Rain = 0
KTAS 160447Z 21007KT 04/00 A3014 RMK A01 T00430001  RH  074%=      5-min Rain = 0
KTAS 160448Z 21007KT 04/00 A3014 RMK A01 T00420000  RH  074%=      5-min Rain = 0
KTAS 160449Z 21007KT 04/00 A3014 RMK A01 T00420000  RH  074%=      5-min Rain = 0
KTAS 160450Z 21007KT 04/00 A3014 RMK A01 T004100-0  RH  075%=      5-min Rain = 0
KTAS 160451Z 21007KT 04/M00 A3014 RMK A01 T00401001  RH  075%=      5-min Rain = 0
KTAS 160452Z 21007KT 04/M00 A3014 RMK A01 T00381001  RH  075%=      5-min Rain = 0
KTAS 160453Z 21007KT 04/M00 A3014 RMK A01 T00371002  RH  076%=      5-min Rain = 0
KTAS 160454Z 21007KT 04/M00 A3014 RMK A01 T00361002  RH  076%=      5-min Rain = 0
KTAS 160455Z 21007KT 04/M00 A3014 RMK A01 T00351003  RH  076%=      5-min Rain = 0
KTAS 160456Z 22007KT 03/M00 A3014 RMK A01 T00341003  RH  077%=      5-min Rain = 0
KTAS 160457Z 22007KT 03/M00 A3014 RMK A01 T00321004  RH  077%=      5-min Rain = 0
KTAS 160458Z 22007KT 03/M00 A3014 RMK A01 T00321004  RH  078%=      5-min Rain = 0
KTAS 160459Z 22007KT 03/M00 A3014 RMK A01 T00311003  RH  078%=      5-min Rain = 0
KTAS 160500Z 22007KT 03/M00 A3014 RMK A01 T00311003  RH  078%=      5-min Rain = 0
KTAS 160501Z 21007KT 03/M00 A3014 RMK A01 T00311003  RH  078%=      5-min Rain = 0
KTAS 160502Z 21007KT 03/M00 A3014 RMK A01 T00311003  RH  078%=      5-min Rain = 0
KTAS 160503Z 21006KT 03/M00 A3014 RMK A01 T00311003  RH  078%=      5-min Rain = 0
KTAS 160504Z 21006KT 03/M00 A3014 RMK A01 T00311003  RH  078%=      5-min Rain = 0
KTAS 160505Z 21006KT 03/M00 A3014 RMK A01 T00311003  RH  078%=      5-min Rain = 0
KTAS 160506Z 21006KT 03/M00 A3014 RMK A01 T00311003  RH  078%=      5-min Rain = 0
KTAS 160507Z 21006KT 03/M00 A3014 RMK A01 T00311003  RH  078%=      5-min Rain = 0
KTAS 160508Z 21006KT 03/M00 A3014 RMK A01 T00301004  RH  078%=      5-min Rain = 0
KTAS 160509Z 22007KT 03/M00 A3014 RMK A01 T00301004  RH  079%=      5-min Rain = 0
KTAS 160510Z 22007KT 03/M00 A3014 RMK A01 T00291004  RH  079%=      5-min Rain = 0
KTAS 160511Z 22007KT 03/M00 A3014 RMK A01 T00281004  RH  079%=      5-min Rain = 0
KTAS 160512Z 22007KT 03/M00 A3014 RMK A01 T00281004  RH  079%=      5-min Rain = 0
KTAS 160513Z 22007KT 03/M00 A3014 RMK A01 T00271004  RH  080%=      5-min Rain = 0
KTAS 160514Z 22007KT 03/M00 A3014 RMK A01 T00271004  RH  080%=      5-min Rain = 0
KTAS 160515Z 22007KT 03/M00 A3014 RMK A01 T00271004  RH  080%=      5-min Rain = 0
KTAS 160516Z 22007KT 03/M00 A3014 RMK A01 T00271004  RH  080%=      5-min Rain = 0
KTAS 160517Z 22007KT 03/M00 A3014 RMK A01 T00271004  RH  080%=      5-min Rain = 0
KTAS 160518Z 22007KT 03/M00 A3014 RMK A01 T00261004  RH  080%=      5-min Rain = 0
KTAS 160519Z 22007KT 03/M01 A3014 RMK A01 T00261005  RH  080%=      5-min Rain = 0
KTAS 160520Z 22007KT 03/M01 A3014 RMK A01 T00261005  RH  081%=      5-min Rain = 0
KTAS 160521Z 22007KT 03/M00 A3014 RMK A01 T00261004  RH  081%=      5-min Rain = 0
KTAS 160522Z 22007KT 03/M01 A3014 RMK A01 T00251005  RH  081%=      5-min Rain = 0
KTAS 160523Z 22007KT 03/M00 A3014 RMK A01 T00251004  RH  081%=      5-min Rain = 0
KTAS 160524Z 22007KT 03/M00 A3014 RMK A01 T00261004  RH  081%=      5-min Rain = 0
KTAS 160525Z 22007KT 03/M00 A3014 RMK A01 T00261004  RH  081%=      5-min Rain = 0
KTAS 160526Z 22007KT 03/M00 A3014 RMK A01 T00261003  RH  081%=      5-min Rain = 0
KTAS 160527Z 22007KT 03/M00 A3014 RMK A01 T00271003  RH  081%=      5-min Rain = 0
KTAS 160528Z 22007KT 03/M00 A3014 RMK A01 T00271002  RH  081%=      5-min Rain = 0
KTAS 160529Z 22007KT 03/M00 A3014 RMK A01 T00281002  RH  081%=      5-min Rain = 0
KTAS 160530Z 22008KT 03/M00 A3014 RMK A01 T00291002  RH  080%=      5-min Rain = 0
KTAS 160531Z 22008KT 03/M00 A3014 RMK A01 T00301002  RH  080%=      5-min Rain = 0
KTAS 160532Z 22007KT 03/M00 A3014 RMK A01 T00301002  RH  079%=      5-min Rain = 0
KTAS 160533Z 22007KT 03/M00 A3014 RMK A01 T00301003  RH  079%=      5-min Rain = 0
KTAS 160534Z 22007KT 03/M00 A3013 RMK A01 T00301003  RH  079%=      5-min Rain = 0
KTAS 160535Z 22007KT 03/M00 A3013 RMK A01 T00301003  RH  079%=      5-min Rain = 0
KTAS 160536Z 22007KT 03/M00 A3013 RMK A01 T00301003  RH  079%=      5-min Rain = 0
KTAS 160537Z 22007KT 03/M00 A3013 RMK A01 T00291004  RH  079%=      5-min Rain = 0
KTAS 160538Z 22007KT 03/M01 A3013 RMK A01 T00281005  RH  079%=      5-min Rain = 0
KTAS 160539Z 22007KT 03/M01 A3013 RMK A01 T00281005  RH  079%=      5-min Rain = 0
KTAS 160540Z 22007KT 03/M01 A3013 RMK A01 T00281005  RH  079%=      5-min Rain = 0
KTAS 160541Z 22006KT 03/M01 A3013 RMK A01 T00281005  RH  079%=      5-min Rain = 0
KTAS 160542Z 22007KT 03/M01 A3013 RMK A01 T00271006  RH  079%=      5-min Rain = 0
KTAS 160543Z 22007KT 03/M01 A3013 RMK A01 T00261006  RH  079%=      5-min Rain = 0
KTAS 160544Z 22007KT 03/M01 A3013 RMK A01 T00261006  RH  079%=      5-min Rain = 0
KTAS 160545Z 22007KT 03/M01 A3013 RMK A01 T00261007  RH  079%=      5-min Rain = 0
KTAS 160546Z 22007KT 03/M01 A3013 RMK A01 T00261007  RH  079%=      5-min Rain = 0
KTAS 160547Z 22007KT 03/M01 A3013 RMK A01 T00261007  RH  079%=      5-min Rain = 0
KTAS 160548Z 22007KT 03/M01 A3013 RMK A01 T00271006  RH  079%=      5-min Rain = 0
KTAS 160549Z 22007KT 03/M01 A3013 RMK A01 T00271006  RH  079%=      5-min Rain = 0
KTAS 160550Z 22007KT 03/M01 A3013 RMK A01 T00261007  RH  079%=      5-min Rain = 0
KTAS 160551Z 23007KT 03/M01 A3013 RMK A01 T00261006  RH  079%=      5-min Rain = 0
KTAS 160552Z 22007KT 03/M01 A3013 RMK A01 T00261007  RH  079%=      5-min Rain = 0
KTAS 160553Z 23007KT 03/M01 A3013 RMK A01 T00261006  RH  079%=      5-min Rain = 0
KTAS 160554Z 23007KT 03/M01 A3013 RMK A01 T00261007  RH  079%=      5-min Rain = 0
KTAS 160555Z 23007KT 03/M01 A3013 RMK A01 T00261006  RH  080%=      5-min Rain = 0
KTAS 160556Z 22007KT 03/M01 A3013 RMK A01 T00251006  RH  080%=      5-min Rain = 0
KTAS 160557Z 23007KT 03/M01 A3013 RMK A01 T00251006  RH  080%=      5-min Rain = 0
KTAS 160558Z 23007KT 03/M01 A3013 RMK A01 T00261006  RH  080%=      5-min Rain = 0
KTAS 160559Z 23008KT 03/M01 A3013 RMK A01 T00261005  RH  080%=      5-min Rain = 0

Page generated in 0.1457 seconds.